CW1648 Weather Reports


Display with metric or nautical units.
time (UTC)temp
F
wind
direction
speed
MPH
gust
MPH
rain 1hr
in
rain 24hr
in
rain mn
in
humidity
%
barometer
mb
20260906145043 74 323 0.0 0.0 0.00 0.00 0.00 71 1006.4
20260906145013 74 323 0.0 0.0 0.00 0.00 0.00 71 1006.4
20260906144912 74 313 0.0 0.0 0.00 0.00 0.00 73 1006.4
20260906144810 74 284 0.0 0.0 0.00 0.00 0.00 73 1009.1
20260906144707 74 311 0.0 0.0 0.00 0.00 0.00 74 1009.1
20260906144609 73 327 0.0 0.0 0.00 0.00 0.00 74 1009.1
20260906144528 73 327 0.0 0.0 0.00 0.00 0.00 74 1006.6
20260906144509 73 327 0.0 0.0 0.00 0.00 0.00 74 1009.1
20260906144422 73 327 0.0 0.0 0.00 0.00 0.00 74 1006.7
20260906144417 73 327 0.0 0.0 0.00 0.00 0.00 75 1006.7
20260906144209 73 327 0.0 0.0 0.00 0.00 0.00 74 1012.0
20260906144107 73 331 0.0 0.0 0.00 0.00 0.00 73 1012.0
20260906144028 73 331 0.0 0.0 0.00 0.00 0.00 72 1012.7
20260906144007 73 331 0.0 0.0 0.00 0.00 0.00 72 1012.8
20260906143906 73 331 0.0 0.0 0.00 0.00 0.00 72 1012.8
20260906143820 73 331 0.0 0.0 0.00 0.00 0.00 72 1013.0
20260906143811 73 331 0.0 0.0 0.00 0.00 0.00 72 1013.0
20260906143606 73 330 0.0 0.0 0.00 0.00 0.00 72 1013.0
20260906143528 73 300 0.0 0.0 0.00 0.00 0.00 71 1013.0
20260906143519 74 300 0.0 0.0 0.00 0.00 0.00 71 1013.1
20260906143514 73 300 0.0 0.0 0.00 0.00 0.00 71 1013.1
20260906143305 74 306 0.0 0.0 0.00 0.00 0.00 70 1013.0
20260906143209 74 306 0.0 0.0 0.00 0.00 0.00 70 1013.0
20260906143203 74 306 0.0 0.0 0.00 0.00 0.00 70 1012.9
20260906143103 74 302 0.0 0.0 0.00 0.00 0.00 71 1012.9
20260906143028 74 327 0.0 0.0 0.00 0.00 0.00 71 1012.7
20260906143004 74 327 0.0 0.0 0.00 0.00 0.00 71 1012.8
20260906142901 74 330 0.0 0.0 0.00 0.00 0.00 70 1012.8
20260906142801 74 330 0.0 0.0 0.00 0.00 0.00 69 1012.8
20260906142706 74 121 0.0 0.0 0.00 0.00 0.00 69 1012.8
20260906142701 74 121 0.0 0.0 0.00 0.00 0.00 69 1012.6
20260906142600 74 123 0.0 0.0 0.00 0.00 0.00 70 1012.5
20260906142528 74 123 0.0 0.0 0.00 0.00 0.00 70 1012.5
20260906142459 74 123 0.0 0.0 0.00 0.00 0.00 70 1012.6
20260906142316 74 355 0.0 0.0 0.00 0.00 0.00 71 1006.7
20260906142310 74 355 0.0 0.0 0.00 0.00 0.00 71 1012.4
20260906142301 74 355 0.0 0.0 0.00 0.00 0.00 71 1006.7
20260906142056 74 351 0.0 0.0 0.00 0.00 0.00 71 1006.7
20260906142028 74 351 0.0 0.0 0.00 0.00 0.00 71 1006.7
20260906141955 74 351 0.0 0.0 0.00 0.00 0.00 71 1006.7
20260906141854 74 350 0.0 0.0 0.00 0.00 0.00 71 1006.7
20260906141813 74 350 0.0 0.0 0.00 0.00 0.00 70 1007.1
20260906141808 74 355 0.0 0.0 0.00 0.00 0.00 70 1007.0
20260906141800 74 355 0.0 0.0 0.00 0.00 0.00 70 1007.1
20260906141553 74 355 0.0 0.0 0.00 0.00 0.00 70 1007.2
20260906141528 74 355 0.0 0.0 0.00 0.00 0.00 70 1007.2
20260906141452 74 355 0.0 0.0 0.00 0.00 0.00 70 1007.2
20260906141352 74 309 0.0 0.0 0.00 0.00 0.00 70 1007.3
20260906141311 74 5 0.0 0.0 0.00 0.00 0.00 70 1007.2
20260906141305 74 321 0.0 0.0 0.00 0.00 0.00 70 1007.3
20260906141258 74 9 0.0 0.0 0.00 0.00 0.00 70 1007.2
20260906141054 74 325 0.0 0.0 0.00 0.00 0.00 72 1007.2
20260906141050 74 342 0.0 0.0 0.00 0.00 0.00 70 1007.2
20260906141028 74 342 0.0 0.0 0.00 0.00 0.00 71 1007.3
20260906141002 73 325 0.0 0.0 0.00 0.00 0.00 72 1007.2
20260906140957 73 69 0.0 0.0 0.00 0.00 0.00 72 1007.4
20260906140953 74 344 0.0 0.0 0.00 0.00 0.00 71 1007.3
20260906140944 74 325 0.0 0.0 0.00 0.00 0.00 71 1007.3
20260906140934 74 324 0.0 0.0 0.00 0.00 0.00 71 1007.2
20260906140605 73 69 0.0 0.0 0.00 0.00 0.00 73 1007.2
20260906140529 73 69 0.0 0.0 0.00 0.00 0.00 72 1007.3
20260906140247 73 300 0.0 0.0 0.00 0.00 0.00 72 1007.5
20260906140204 73 341 0.0 0.0 0.00 0.00 0.00 73 1007.5
20260906140146 73 342 0.0 0.0 0.00 0.00 0.00 72 1007.6
20260906140046 73 314 0.0 0.0 0.00 0.00 0.00 72 1007.5
20260906140029 73 317 0.0 0.0 0.00 0.00 0.00 71 1007.4
20260906135943 73 317 0.0 0.0 0.00 0.00 0.00 71 1007.5
20260906135916 73 317 0.0 0.0 0.00 0.00 0.00 71 1007.5
20260906135912 73 317 0.0 0.0 0.00 0.00 0.00 71 1007.6
20260906135906 73 317 0.0 0.0 0.00 0.00 0.00 71 1007.5
20260906135749 73 317 0.0 0.0 0.00 0.00 0.00 71 1007.5
20260906135542 73 317 0.0 0.0 0.00 0.00 0.00 71 1007.6
20260906135528 73 317 0.0 0.0 0.00 0.00 0.00 71 1007.6
20260906135443 73 317 0.0 0.0 0.00 0.00 0.00 72 1007.6
20260906135341 73 317 0.0 0.0 0.00 0.00 0.00 73 1007.6
20260906135241 73 315 0.0 0.0 0.00 0.00 0.00 73 1007.5
20260906135203 73 315 0.0 0.0 0.00 0.00 0.00 73 1007.6
20260906135140 73 315 0.0 0.0 0.00 0.00 0.00 73 1007.6
20260906135040 73 315 0.0 0.0 0.00 0.00 0.00 72 1007.6
20260906135029 73 315 0.0 0.0 0.00 0.00 0.00 72 1007.6
20260906134939 73 314 0.0 0.0 0.00 0.00 0.00 72 1007.6
20260906134853 73 80 0.0 0.0 0.00 0.00 0.00 71 1007.8
20260906134848 73 79 0.0 0.0 0.00 0.00 0.00 71 1007.7
20260906134703 73 78 0.0 0.0 0.00 0.00 0.00 72 1007.9
20260906134639 73 85 0.0 0.0 0.00 0.00 0.00 72 1007.9
20260906134607 73 85 0.0 0.0 0.00 0.00 0.00 74 1007.9
20260906134603 73 80 0.0 0.0 0.00 0.00 0.00 74 1007.9
20260906134557 73 85 0.0 0.0 0.00 0.00 0.00 73 1007.9
20260906134528 73 85 0.0 0.0 0.00 0.00 0.00 73 1007.9
20260906134238 73 49 0.0 0.0 0.00 0.00 0.00 74 1008.1
20260906134202 73 49 0.0 0.0 0.00 0.00 0.00 74 1008.0
20260906134138 73 49 0.0 0.0 0.00 0.00 0.00 74 1008.0
20260906134038 72 69 0.0 0.0 0.00 0.00 0.00 74 1008.0
20260906134028 72 69 0.0 0.0 0.00 0.00 0.00 75 1007.9
20260906133937 72 69 0.0 0.0 0.00 0.00 0.00 75 1007.9
20260906133837 72 69 0.0 0.0 0.00 0.00 0.00 74 1008.0
20260906133737 72 69 0.0 0.0 0.00 0.00 0.00 74 1007.9
20260906133702 72 105 0.0 0.0 0.00 0.00 0.00 74 1007.9
20260906133636 72 105 0.0 0.0 0.00 0.00 0.00 74 1007.9
20260906133551 72 105 0.0 0.0 0.00 0.00 0.00 74 1008.0
20260906133546 72 105 0.0 0.0 0.00 0.00 0.00 73 1007.9
20260906133543 72 105 0.0 0.0 0.00 0.00 0.00 74 1008.0
20260906133336 72 90 0.0 0.0 0.00 0.00 0.00 75 1007.9
20260906133236 72 337 0.0 0.0 0.00 0.00 0.00 74 1007.7
20260906133158 72 337 0.0 0.0 0.00 0.00 0.00 74 1008.0
20260906133044 72 332 0.0 0.0 0.00 0.00 0.00 74 1008.1
20260906132921 72 84 0.0 0.0 0.00 0.00 0.00 76 1008.3
20260906132835 72 84 0.0 0.0 0.00 0.00 0.00 74 1008.1
20260906132816 72 84 0.0 0.0 0.00 0.00 0.00 76 1008.4
20260906132809 72 84 0.0 0.0 0.00 0.00 0.00 76 1008.2
20260906132655 72 84 0.0 0.0 0.00 0.00 0.00 76 1008.2
20260906132650 72 84 0.0 0.0 0.00 0.00 0.00 76 1008.3
20260906132544 72 84 0.0 0.0 0.00 0.00 0.00 76 1008.2
20260906132331 72 332 0.0 0.0 0.00 0.00 0.00 78 1008.2
20260906132231 71 331 0.0 0.0 0.00 0.00 0.00 78 1008.2
20260906132200 71 331 0.0 0.0 0.00 0.00 0.00 78 1008.3
20260906132131 71 331 0.0 0.0 0.00 0.00 0.00 78 1008.3
20260906132059 71 331 0.0 0.0 0.00 0.00 0.00 77 1008.2
20260906132045 71 333 0.0 0.0 0.00 0.00 0.00 78 1008.3
20260906132040 71 331 0.0 0.0 0.00 0.00 0.00 77 1008.2
20260906131830 71 332 0.0 0.0 0.00 0.00 0.00 78 1008.5
20260906131730 71 332 0.0 0.0 0.00 0.00 0.00 78 1008.4
20260906131700 71 332 0.0 0.0 0.00 0.00 0.00 78 1008.4
20260906131630 71 332 0.0 0.0 0.00 0.00 0.00 77 1008.4
20260906131543 71 334 0.0 0.0 0.00 0.00 0.00 79 1008.4
20260906131529 71 334 0.0 0.0 0.00 0.00 0.00 79 1008.4
20260906131429 71 106 0.0 0.0 0.00 0.00 0.00 78 1008.5
20260906131327 71 107 0.0 0.0 0.00 0.00 0.00 79 1008.3
20260906131226 70 88 0.0 0.0 0.00 0.00 0.00 80 1008.4
20260906131200 70 89 0.0 0.0 0.00 0.00 0.00 80 1008.6
20260906131139 70 264 0.0 0.0 0.00 0.00 0.00 80 1008.6
20260906131134 70 264 0.0 0.0 0.00 0.00 0.00 80 1008.6
20260906131028 70 264 0.0 0.0 0.00 0.00 0.00 80 1008.5
20260906130924 70 264 0.0 0.0 0.00 0.00 0.00 80 1008.6
20260906130824 70 264 0.0 0.0 0.00 0.00 0.00 81 1008.9
20260906130723 70 264 0.0 0.0 0.00 0.00 0.00 82 1009.3
20260906130700 70 264 0.0 0.0 0.00 0.00 0.00 82 1008.7
20260906130637 69 264 0.0 0.0 0.00 0.00 0.00 83 1008.9
20260906130631 69 264 0.0 0.0 0.00 0.00 0.00 82 1008.7
20260906130528 69 264 0.0 0.0 0.00 0.00 0.00 83 1008.9
20260906130450 69 264 0.0 0.0 0.00 0.00 0.00 83 1008.9
20260906130446 69 264 0.0 0.0 0.00 0.00 0.00 83 1009.1
20260906130442 69 264 0.0 0.0 0.00 0.00 0.00 83 1009.0
20260906130159 69 264 0.0 0.0 0.00 0.00 0.00 82 1008.9
20260906130123 69 264 0.0 0.0 0.00 0.00 0.00 82 1008.9
20260906130028 69 264 0.0 0.0 0.00 0.00 0.00 83 1011.5
20260906130022 69 264 0.0 0.0 0.00 0.00 0.00 83 1008.8
20260906125922 69 264 0.0 0.0 0.00 0.00 0.00 83 1011.5
20260906125821 69 264 0.0 0.0 0.00 0.00 0.00 83 1011.5
20260906125719 69 264 0.0 0.0 0.00 0.00 0.00 84 1011.5
20260906125658 69 264 0.0 0.0 0.00 0.00 0.00 84 1011.9
20260906125619 68 263 0.0 0.0 0.00 0.00 0.00 84 1011.9
20260906125543 68 325 0.0 0.0 0.00 0.00 0.00 85 1012.2
20260906125516 68 325 0.0 0.0 0.00 0.00 0.00 85 1012.1
20260906125413 68 325 0.0 0.0 0.00 0.00 0.00 85 1012.2
20260906125312 68 325 0.0 0.0 0.00 0.00 0.00 86 1012.2
20260906125212 68 326 0.0 0.0 0.00 0.00 0.00 86 1012.2
20260906125158 68 326 0.0 0.0 0.00 0.00 0.00 86 1012.2
20260906125113 68 327 0.0 0.0 0.00 0.00 0.00 85 1012.2
20260906125028 68 327 0.0 0.0 0.00 0.00 0.00 86 1012.2
20260906125011 68 327 0.0 0.0 0.00 0.00 0.00 86 1012.1
20260906124925 67 331 0.0 0.0 0.00 0.00 0.00 88 1012.2
20260906124919 68 320 0.0 0.0 0.00 0.00 0.00 88 1012.2
20260906124710 67 331 0.0 0.0 0.00 0.00 0.00 89 1012.2
20260906124657 67 331 0.0 0.0 0.00 0.00 0.00 89 1012.2
20260906124609 67 331 0.0 0.0 0.00 0.00 0.00 89 1012.2
20260906124529 67 331 0.0 0.0 0.00 0.00 0.00 89 1012.2
20260906124509 67 331 0.0 0.0 0.00 0.00 0.00 89 1012.2
20260906124409 67 331 0.0 0.0 0.00 0.00 0.00 89 1012.2
20260906124308 67 331 0.0 0.0 0.00 0.00 0.00 90 1012.2
20260906124208 67 332 0.0 0.0 0.00 0.00 0.00 91 1012.1
20260906124155 66 332 0.0 0.0 0.00 0.00 0.00 91 1012.2
20260906124108 66 332 0.0 0.0 0.00 0.00 0.00 91 1012.2
20260906124028 66 332 0.0 0.0 0.00 0.00 0.00 91 1012.1
20260906124007 66 332 0.0 0.0 0.00 0.00 0.00 91 1012.2
20260906123907 66 333 0.0 0.0 0.00 0.00 0.00 92 1012.1
20260906123807 66 333 0.0 0.0 0.00 0.00 0.00 92 1012.1
20260906123706 66 333 0.0 0.0 0.00 0.00 0.00 92 1012.2
20260906123652 66 333 0.0 0.0 0.00 0.00 0.00 92 1012.2
20260906123606 65 333 0.0 0.0 0.00 0.00 0.00 92 1012.1
20260906123528 65 333 0.0 0.0 0.00 0.00 0.00 92 1012.1
20260906123506 65 333 0.0 0.0 0.00 0.00 0.00 92 1012.1
20260906123427 65 333 0.0 0.0 0.00 0.00 0.00 93 1012.1
20260906123423 65 333 0.0 0.0 0.00 0.00 0.00 93 1012.2
20260906123417 65 333 0.0 0.0 0.00 0.00 0.00 93 1012.1
20260906123259 65 333 0.0 0.0 0.00 0.00 0.00 93 1012.2
20260906123102 65 333 0.0 0.0 0.00 0.00 0.00 93 1012.2
20260906123033 65 340 0.0 0.0 0.00 0.00 0.00 94 1012.2
20260906123028 65 340 0.0 0.0 0.00 0.00 0.00 94 1012.2
20260906122921 64 342 0.0 0.0 0.00 0.00 0.00 94 1012.1
20260906122916 65 341 0.0 0.0 0.00 0.00 0.00 94 1012.1
20260906122907 65 341 0.0 0.0 0.00 0.00 0.00 94 1012.1
20260906122601 64 232 0.0 0.0 0.00 0.00 0.00 94 1012.1
20260906122529 64 232 0.0 0.0 0.00 0.00 0.00 95 1012.2
20260906122514 64 232 0.0 0.0 0.00 0.00 0.00 95 1012.1
20260906122510 64 232 0.0 0.0 0.00 0.00 0.00 95 1012.1
20260906122300 64 232 0.0 0.0 0.00 0.00 0.00 95 1012.0
20260906122149 64 232 0.0 0.0 0.00 0.00 0.00 95 1012.0
20260906122059 64 232 0.0 0.0 0.00 0.00 0.00 95 1012.0
20260906122028 64 232 0.0 0.0 0.00 0.00 0.00 95 1012.1
20260906121959 64 232 0.0 0.0 0.00 0.00 0.00 95 1012.0
20260906121859 64 232 0.0 0.0 0.00 0.00 0.00 95 1012.0
20260906121757 64 232 0.0 0.0 0.00 0.00 0.00 96 1012.0
20260906121657 64 232 0.0 0.0 0.00 0.00 0.00 96 1012.0
20260906121647 64 230 0.0 0.0 0.00 0.00 0.00 96 1012.0
20260906121557 64 230 0.0 0.0 0.00 0.00 0.00 96 1012.0
20260906121529 64 230 0.0 0.0 0.00 0.00 0.00 96 1012.1
20260906121457 64 230 0.0 0.0 0.00 0.00 0.00 96 1012.0
20260906121357 63 230 0.0 0.0 0.00 0.00 0.00 96 1012.1
20260906121256 63 230 0.0 0.0 0.00 0.00 0.00 96 1012.1
20260906121145 63 230 0.0 0.0 0.00 0.00 0.00 96 1012.1
20260906121123 63 230 0.0 0.0 0.00 0.00 0.00 96 1012.1
20260906121118 63 230 0.0 0.0 0.00 0.00 0.00 96 1012.1
20260906121114 63 230 0.0 0.0 0.00 0.00 0.00 96 1012.1
20260906121029 63 230 0.0 0.0 0.00 0.00 0.00 96 1012.2
20260906120753 63 230 0.0 0.0 0.00 0.00 0.00 97 1012.1
20260906120653 63 230 0.0 0.0 0.00 0.00 0.00 96 1012.1
20260906120643 63 230 0.0 0.0 0.00 0.00 0.00 96 1012.1
20260906120606 63 230 0.0 0.0 0.00 0.00 0.00 97 1012.1
20260906120602 63 230 0.0 0.0 0.00 0.00 0.00 97 1012.1
20260906120529 63 230 0.0 0.0 0.00 0.00 0.00 97 1012.2
20260906120353 63 230 0.0 0.0 0.00 0.00 0.00 97 1012.1
20260906120252 63 230 0.0 0.0 0.00 0.00 0.00 97 1012.1
20260906120143 63 230 0.0 0.0 0.00 0.00 0.00 97 1012.0
20260906120126 63 230 0.0 0.0 0.00 0.00 0.00 97 1012.0
20260906120121 63 230 0.0 0.0 0.00 0.00 0.00 97 1012.1
20260906120028 63 230 0.0 0.0 0.00 0.00 0.00 97 1012.1
20260906120008 63 230 0.0 0.0 0.00 0.00 0.00 97 1012.0
20260906115642 62 230 0.0 0.0 0.00 0.00 0.00 97 1012.0
20260906115548 62 230 0.0 0.0 0.00 0.00 0.00 97 1012.1
20260906115543 62 230 0.0 0.0 0.00 0.00 0.00 97 1012.2
20260906115449 62 230 0.0 0.0 0.00 0.00 0.00 97 1012.1
20260906115348 62 230 0.0 0.0 0.00 0.00 0.00 97 1012.1
20260906115248 62 230 0.0 0.0 0.00 0.00 0.00 97 1012.1
20260906115206 62 230 0.0 0.0 0.00 0.00 0.00 97 1012.2
20260906115154 62 230 0.0 0.0 0.00 0.00 0.00 97 1012.2
20260906115028 62 230 0.0 0.0 0.00 0.00 0.00 97 1012.4
20260906115000 61 230 0.0 0.0 0.00 0.00 0.00 97 1012.2
20260906114956 62 230 0.0 0.0 0.00 0.00 0.00 97 1012.3
20260906114746 61 230 0.0 0.0 0.00 0.00 0.00 97 1012.3
20260906114638 61 230 0.0 0.0 0.00 0.00 0.00 97 1012.3
20260906114607 61 230 0.0 0.0 0.00 0.00 0.00 97 1012.3
20260906114529 61 230 0.0 0.0 0.00 0.00 0.00 97 1012.3
20260906114453 61 230 0.0 0.0 0.00 0.00 0.00 97 1012.2
20260906114258 60 230 0.0 0.0 0.00 0.00 0.00 97 1012.2
20260906114253 60 230 0.0 0.0 0.00 0.00 0.00 97 1012.3
20260906114136 60 230 0.0 0.0 0.00 0.00 0.00 97 1012.2
20260906114043 60 230 0.0 0.0 0.00 0.00 0.00 97 1012.2
20260906114028 60 230 0.0 0.0 0.00 0.00 0.00 97 1012.3
20260906113942 60 230 0.0 0.0 0.00 0.00 0.00 97 1012.2
20260906113840 60 230 0.0 0.0 0.00 0.00 0.00 97 1012.1
20260906113740 60 230 0.0 0.0 0.00 0.00 0.00 97 1012.1
20260906113638 60 230 0.0 0.0 0.00 0.00 0.00 97 1012.1
20260906113540 60 230 0.0 0.0 0.00 0.00 0.00 97 1012.1
20260906113529 60 230 0.0 0.0 0.00 0.00 0.00 97 1012.2
20260906113452 60 230 0.0 0.0 0.00 0.00 0.00 97 1012.1
20260906113448 60 230 0.0 0.0 0.00 0.00 0.00 97 1012.1
20260906113238 60 230 0.0 0.0 0.00 0.00 0.00 97 1012.1
20260906113157 60 230 0.0 0.0 0.00 0.00 0.00 97 1012.1
20260906113146 60 230 0.0 0.0 0.00 0.00 0.00 97 1012.1
20260906113028 60 230 0.0 0.0 0.00 0.00 0.00 97 1012.1
20260906112938 59 230 0.0 0.0 0.00 0.00 0.00 97 1012.0
20260906112850 59 230 0.0 0.0 0.00 0.00 0.00 97 1012.0
20260906112846 59 230 0.0 0.0 0.00 0.00 0.00 97 1012.1
20260906112708 59 230 0.0 0.0 0.00 0.00 0.00 97 1011.9
20260906112704 59 231 0.0 0.0 0.00 0.00 0.00 97 1011.9
20260906112652 59 230 0.0 0.0 0.00 0.00 0.00 97 1012.0
20260906112543 59 231 0.0 0.0 0.00 0.00 0.00 97 1012.0
20260906112335 58 231 0.0 0.0 0.00 0.00 0.00 97 1011.8
20260906112234 58 231 0.0 0.0 0.00 0.00 0.00 97 1011.8
20260906112152 58 230 0.0 0.0 0.00 0.00 0.00 97 1011.8
20260906112141 58 231 0.0 0.0 0.00 0.00 0.00 97 1011.8
20260906112029 58 230 0.0 0.0 0.00 0.00 0.00 97 1012.0
20260906111933 58 230 0.0 0.0 0.00 0.00 0.00 97 1011.8
20260906111840 58 230 0.0 0.0 0.00 0.00 0.00 96 1011.8
20260906111633 58 230 0.0 0.0 0.00 0.00 0.00 96 1011.8
20260906111543 58 230 0.0 0.0 0.00 0.00 0.00 96 1011.8
20260906111539 58 230 0.0 0.0 0.00 0.00 0.00 96 1011.8
20260906111529 58 230 0.0 0.0 0.00 0.00 0.00 96 1012.0
20260906111329 58 230 0.0 0.0 0.00 0.00 0.00 96 1011.7
20260906111229 58 230 0.0 0.0 0.00 0.00 0.00 96 1011.7
20260906111130 58 230 0.0 0.0 0.00 0.00 0.00 96 1011.7
20260906111029 58 230 0.0 0.0 0.00 0.00 0.00 96 1011.7
20260906110929 58 230 0.0 0.0 0.00 0.00 0.00 96 1011.7
20260906110829 58 230 0.0 0.0 0.00 0.00 0.00 96 1011.7
20260906110726 58 230 0.0 0.0 0.00 0.00 0.00 97 1011.7
20260906110625 58 230 0.0 0.0 0.00 0.00 0.00 97 1011.6
20260906110529 58 230 0.0 0.0 0.00 0.00 0.00 96 1011.8
20260906110525 58 230 0.0 0.0 0.00 0.00 0.00 96 1011.7
20260906110424 57 230 0.0 0.0 0.00 0.00 0.00 96 1011.6
20260906110324 57 230 0.0 0.0 0.00 0.00 0.00 96 1011.6
20260906110223 57 230 0.0 0.0 0.00 0.00 0.00 96 1011.6
20260906110124 57 230 0.0 0.0 0.00 0.00 0.00 96 1011.6
20260906110029 57 230 0.0 0.0 0.00 0.00 0.00 96 1011.8
20260906110023 57 230 0.0 0.0 0.00 0.00 0.00 96 1011.6
20260906110008 57 230 0.0 0.0 0.00 0.00 0.00 96 1011.6
20260906110004 57 230 0.0 0.0 0.00 0.00 0.00 96 1011.6
20260906110000 57 230 0.0 0.0 0.00 0.00 0.00 96 1011.6
20260906105954 57 230 0.0 0.0 0.00 0.00 0.00 96 1011.6
20260906105727 57 230 0.0 0.0 0.00 0.00 0.00 96 1011.6
20260906105557 57 230 0.0 0.0 0.00 0.00 0.00 96 1011.5
20260906105552 57 230 0.0 0.0 0.00 0.00 0.00 96 1011.6
20260906105529 57 230 0.0 0.0 0.00 0.00 0.00 96 1011.7
20260906105329 57 230 0.0 0.0 0.00 0.00 0.00 96 1011.5
20260906105119 57 230 0.0 0.0 0.00 0.00 0.00 96 1011.5
20260906105044 57 230 0.0 0.0 0.00 0.00 0.00 96 1011.6
20260906105019 57 230 0.0 0.0 0.00 0.00 0.00 96 1011.4
20260906104919 57 230 0.0 0.0 0.00 0.00 0.00 96 1011.4
20260906104818 57 230 0.0 0.0 0.00 0.00 0.00 96 1011.4
20260906104731 57 230 0.0 0.0 0.00 0.00 0.00 96 1011.4
20260906104722 57 230 0.0 0.0 0.00 0.00 0.00 96 1011.4
20260906104529 57 230 0.0 0.0 0.00 0.00 0.00 96 1011.6
20260906104516 57 230 0.0 0.0 0.00 0.00 0.00 96 1011.4
20260906104415 57 230 0.0 0.0 0.00 0.00 0.00 96 1011.4
20260906104348 57 230 0.0 0.0 0.00 0.00 0.00 96 1011.4
20260906104314 57 230 0.0 0.0 0.00 0.00 0.00 96 1011.4
20260906104233 57 230 0.0 0.0 0.00 0.00 0.00 96 1011.4
20260906104112 57 230 0.0 0.0 0.00 0.00 0.00 96 1011.4
20260906104029 57 230 0.0 0.0 0.00 0.00 0.00 96 1011.5
20260906104010 57 230 0.0 0.0 0.00 0.00 0.00 96 1011.3
20260906103910 57 230 0.0 0.0 0.00 0.00 0.00 96 1011.3
20260906103810 57 230 0.0 0.0 0.00 0.00 0.00 96 1011.3
20260906103709 57 230 0.0 0.0 0.00 0.00 0.00 96 1011.3
20260906103608 57 230 0.0 0.0 0.00 0.00 0.00 96 1011.3
20260906103529 57 230 0.0 0.0 0.00 0.00 0.00 96 1011.4
20260906103508 57 230 0.0 0.0 0.00 0.00 0.00 96 1011.3
20260906103408 57 230 0.0 0.0 0.00 0.00 0.00 96 1011.2
20260906103334 57 230 0.0 0.0 0.00 0.00 0.00 96 1011.2
20260906103221 57 230 0.0 0.0 0.00 0.00 0.00 96 1011.2
20260906103212 57 230 0.0 0.0 0.00 0.00 0.00 96 1011.2
20260906103029 57 230 0.0 0.0 0.00 0.00 0.00 96 1011.3
20260906103006 57 230 0.0 0.0 0.00 0.00 0.00 96 1011.1
20260906102905 57 230 0.0 0.0 0.00 0.00 0.00 96 1011.1
20260906102842 57 230 0.0 0.0 0.00 0.00 0.00 96 1011.1
20260906102805 57 230 0.0 0.0 0.00 0.00 0.00 96 1011.1
20260906102730 57 230 0.0 0.0 0.00 0.00 0.00 96 1011.1
20260906102604 57 230 0.0 0.0 0.00 0.00 0.00 96 1011.1
20260906102529 57 230 0.0 0.0 0.00 0.00 0.00 96 1011.3
20260906102515 57 230 0.0 0.0 0.00 0.00 0.00 96 1011.1
20260906102512 57 230 0.0 0.0 0.00 0.00 0.00 96 1011.1
20260906102305 57 230 0.0 0.0 0.00 0.00 0.00 96 1011.1
20260906102202 57 230 0.0 0.0 0.00 0.00 0.00 96 1011.1
20260906102122 57 230 0.0 0.0 0.00 0.00 0.00 96 1011.1
20260906102114 57 230 0.0 0.0 0.00 0.00 0.00 96 1011.2
20260906102110 57 230 0.0 0.0 0.00 0.00 0.00 96 1011.1
20260906102029 57 230 0.0 0.0 0.00 0.00 0.00 96 1011.4
20260906101914 57 230 0.0 0.0 0.00 0.00 0.00 96 1011.1
20260906101910 57 230 0.0 0.0 0.00 0.00 0.00 96 1011.1
20260906101700 57 230 0.0 0.0 0.00 0.00 0.00 96 1011.2
20260906101620 57 230 0.0 0.0 0.00 0.00 0.00 96 1011.2
20260906101613 57 230 0.0 0.0 0.00 0.00 0.00 96 1011.1
20260906101608 57 230 0.0 0.0 0.00 0.00 0.00 96 1011.1
20260906101529 57 230 0.0 0.0 0.00 0.00 0.00 96 1011.3
20260906101400 57 230 0.0 0.0 0.00 0.00 0.00 96 1011.1
20260906101259 57 230 0.0 0.0 0.00 0.00 0.00 96 1011.1
20260906101158 57 230 0.0 0.0 0.00 0.00 0.00 96 1011.1
20260906101118 57 230 0.0 0.0 0.00 0.00 0.00 96 1011.1
20260906101110 57 230 0.0 0.0 0.00 0.00 0.00 96 1011.1
20260906101106 57 230 0.0 0.0 0.00 0.00 0.00 96 1011.1
20260906101029 57 230 0.0 0.0 0.00 0.00 0.00 96 1011.3
20260906100857 57 230 0.0 0.0 0.00 0.00 0.00 96 1011.1
20260906100840 57 230 0.0 0.0 0.00 0.00 0.00 96 1011.0
20260906100835 57 230 0.0 0.0 0.00 0.00 0.00 96 1011.0
20260906100556 57 230 0.0 0.0 0.00 0.00 0.00 96 1011.1
20260906100529 57 230 0.0 0.0 0.00 0.00 0.00 96 1011.2
20260906100503 57 230 0.0 0.0 0.00 0.00 0.00 96 1011.0
20260906100459 57 230 0.0 0.0 0.00 0.00 0.00 96 1011.0
20260906100448 57 230 0.0 0.0 0.00 0.00 0.00 96 1011.0
20260906100442 57 230 0.0 0.0 0.00 0.00 0.00 96 1011.0
20260906100055 57 230 0.0 0.0 0.00 0.00 0.00 96 1010.9
20260906100028 57 230 0.0 0.0 0.00 0.00 0.00 96 1011.0
20260906095954 57 230 0.0 0.0 0.00 0.00 0.00 96 1010.8
20260906095927 57 308 0.0 0.0 0.00 0.00 0.00 96 1010.8
20260906095854 57 230 0.0 0.0 0.00 0.00 0.00 96 1010.9
20260906095822 57 308 0.0 0.0 0.00 0.00 0.00 96 1010.9
20260906095816 57 308 0.0 0.0 0.00 0.00 0.00 96 1010.9
20260906095807 57 308 0.0 0.0 0.00 0.00 0.00 96 1010.8
20260906095529 57 308 0.0 0.0 0.00 0.00 0.00 96 1011.0
20260906095452 57 308 0.0 0.0 0.00 0.00 0.00 96 1010.8
20260906095352 57 308 0.0 0.0 0.00 0.00 0.00 96 1010.8
20260906095305 57 308 0.0 0.0 0.00 0.00 0.00 96 1010.7
20260906095258 57 308 0.0 0.0 0.00 0.00 0.00 96 1010.8
20260906095113 57 308 0.0 0.0 0.00 0.00 0.00 96 1010.7
20260906095049 57 308 0.0 0.0 0.00 0.00 0.00 96 1010.7
20260906095029 57 308 0.0 0.0 0.00 0.00 0.00 96 1010.9
20260906095004 57 308 0.0 0.0 0.00 0.00 0.00 96 1010.7
20260906095000 57 308 0.0 0.0 0.00 0.00 0.00 96 1010.7
20260906094748 57 308 0.0 0.0 0.00 0.00 0.00 96 1010.6
20260906094707 57 308 0.0 0.0 0.00 0.00 0.00 96 1010.6
20260906094556 57 308 0.0 0.0 0.00 0.00 0.00 96 1010.7
20260906094529 57 308 0.0 0.0 0.00 0.00 0.00 96 1010.9
20260906094347 57 308 0.0 0.0 0.00 0.00 0.00 96 1010.7
20260906094328 57 308 0.0 0.0 0.00 0.00 0.00 96 1010.7
20260906094245 57 308 0.0 0.0 0.00 0.00 0.00 96 1010.6
20260906094217 57 308 0.0 0.0 0.00 0.00 0.00 96 1010.7
20260906094058 57 308 0.0 0.0 0.00 0.00 0.00 96 1010.6
20260906094054 57 308 0.0 0.0 0.00 0.00 0.00 96 1010.7
20260906094029 57 308 0.0 0.0 0.00 0.00 0.00 96 1010.8
20260906093844 57 308 0.0 0.0 0.00 0.00 0.00 96 1010.6
20260906093757 57 308 0.0 0.0 0.00 0.00 0.00 96 1010.6
20260906093753 57 308 0.0 0.0 0.00 0.00 0.00 96 1010.7
20260906093608 57 308 0.0 0.0 0.00 0.00 0.00 96 1010.6
20260906093557 57 308 0.0 0.0 0.00 0.00 0.00 96 1010.6
20260906093553 57 308 0.0 0.0 0.00 0.00 0.00 96 1010.6
20260906093529 57 308 0.0 0.0 0.00 0.00 0.00 96 1010.8
20260906093342 57 308 0.0 0.0 0.00 0.00 0.00 96 1010.6
20260906093241 57 308 0.0 0.0 0.00 0.00 0.00 96 1010.5
20260906093159 57 308 0.0 0.0 0.00 0.00 0.00 96 1010.5
20260906093147 57 308 0.0 0.0 0.00 0.00 0.00 96 1010.5
20260906093043 57 308 0.0 0.0 0.00 0.00 0.00 96 1010.7
20260906092941 57 308 0.0 0.0 0.00 0.00 0.00 96 1010.5
20260906092852 57 308 0.0 0.0 0.00 0.00 0.00 96 1010.4
20260906092848 57 308 0.0 0.0 0.00 0.00 0.00 96 1010.4
20260906092639 57 308 0.0 0.0 0.00 0.00 0.00 96 1010.4
20260906092603 57 308 0.0 0.0 0.00 0.00 0.00 96 1010.4
20260906092538 57 308 0.0 0.0 0.00 0.00 0.00 96 1010.3
20260906092529 57 308 0.0 0.0 0.00 0.00 0.00 96 1010.5
20260906092438 57 308 0.0 0.0 0.00 0.00 0.00 96 1010.3
20260906092337 57 308 0.0 0.0 0.00 0.00 0.00 96 1010.3
20260906092237 57 308 0.0 0.0 0.00 0.00 0.00 96 1010.4
20260906092136 57 308 0.0 0.0 0.00 0.00 0.00 96 1010.3
20260906092102 57 308 0.0 0.0 0.00 0.00 0.00 96 1010.3
20260906092036 57 308 0.0 0.0 0.00 0.00 0.00 96 1010.3
20260906092029 57 308 0.0 0.0 0.00 0.00 0.00 96 1010.5
20260906091936 57 308 0.0 0.0 0.00 0.00 0.00 96 1010.3
20260906091836 57 308 0.0 0.0 0.00 0.00 0.00 96 1010.2
20260906091830 57 308 0.0 0.0 0.00 0.00 0.00 96 1010.3
20260906091824 57 308 0.0 0.0 0.00 0.00 0.00 96 1010.2
20260906091819 57 308 0.0 0.0 0.00 0.00 0.00 96 1010.2
20260906091533 57 308 0.0 0.0 0.00 0.00 0.00 96 1010.2
20260906091529 57 308 0.0 0.0 0.00 0.00 0.00 96 1010.4
20260906091432 57 308 0.0 0.0 0.00 0.00 0.00 96 1010.2
20260906091344 57 308 0.0 0.0 0.00 0.00 0.00 96 1010.2
20260906091340 57 308 0.0 0.0 0.00 0.00 0.00 96 1010.2
20260906091131 57 308 0.0 0.0 0.00 0.00 0.00 96 1010.1
20260906091101 57 308 0.0 0.0 0.00 0.00 0.00 96 1010.1
20260906091029 57 308 0.0 0.0 0.00 0.00 0.00 96 1010.3
20260906090928 57 308 0.0 0.0 0.00 0.00 0.00 96 1010.1
20260906090828 57 308 0.0 0.0 0.00 0.00 0.00 96 1010.1
20260906090741 58 308 0.0 0.0 0.00 0.00 0.00 96 1010.1
20260906090737 58 308 0.0 0.0 0.00 0.00 0.00 96 1010.1
20260906090559 58 308 0.0 0.0 0.00 0.00 0.00 96 1010.1
20260906090529 58 308 0.0 0.0 0.00 0.00 0.00 96 1010.4
20260906090527 58 308 0.0 0.0 0.00 0.00 0.00 96 1010.1
20260906090426 58 308 0.0 0.0 0.00 0.00 0.00 96 1010.1
20260906090238 58 308 0.0 0.0 0.00 0.00 0.00 96 1010.0
20260906090233 58 308 0.0 0.0 0.00 0.00 0.00 96 1010.1
20260906090057 58 308 0.0 0.0 0.00 0.00 0.00 96 1010.0
20260906090029 58 308 0.0 0.0 0.00 0.00 0.00 96 1010.3
20260906090024 58 308 0.0 0.0 0.00 0.00 0.00 96 1010.0
20260906085923 58 308 0.0 0.0 0.00 0.00 0.00 96 1010.0
20260906085835 58 308 0.0 0.0 0.00 0.00 0.00 96 1010.1
20260906085830 58 308 0.0 0.0 0.00 0.00 0.00 96 1010.0
20260906085621 58 308 0.0 0.0 0.00 0.00 0.00 96 1010.0
20260906085533 58 308 0.0 0.0 0.00 0.00 0.00 96 1010.0
20260906085529 58 308 0.0 0.0 0.00 0.00 0.00 96 1010.1
20260906085319 58 308 0.0 0.0 0.00 0.00 0.00 96 1010.0
20260906085219 58 308 0.0 0.0 0.00 0.00 0.00 96 1010.0
20260906085117 58 308 0.0 0.0 0.00 0.00 0.00 96 1010.0
20260906085057 58 308 0.0 0.0 0.00 0.00 0.00 96 1010.0
20260906085029 58 308 0.0 0.0 0.00 0.00 0.00 96 1010.4
20260906085017 58 308 0.0 0.0 0.00 0.00 0.00 96 1010.0
20260906084917 58 308 0.0 0.0 0.00 0.00 0.00 96 1010.1
20260906084817 58 308 0.0 0.0 0.00 0.00 0.00 96 1010.1
20260906084717 58 308 0.0 0.0 0.00 0.00 0.00 96 1010.0
20260906084630 58 308 0.0 0.0 0.00 0.00 0.00 96 1010.0
20260906084622 58 308 0.0 0.0 0.00 0.00 0.00 96 1010.1
20260906084528 58 308 0.0 0.0 0.00 0.00 0.00 96 1010.4
20260906084415 58 308 0.0 0.0 0.00 0.00 0.00 96 1010.1
20260906084315 58 308 0.0 0.0 0.00 0.00 0.00 96 1010.1
20260906084214 58 308 0.0 0.0 0.00 0.00 0.00 96 1010.1
20260906084128 58 308 0.0 0.0 0.00 0.00 0.00 96 1010.1
20260906084120 58 308 0.0 0.0 0.00 0.00 0.00 96 1010.1
20260906084029 58 308 0.0 0.0 0.00 0.00 0.00 96 1010.4
20260906083913 58 308 0.0 0.0 0.00 0.00 0.00 96 1010.1
20260906083810 58 308 0.0 0.0 0.00 0.00 0.00 96 1010.1
20260906083711 58 308 0.0 0.0 0.00 0.00 0.00 96 1010.1
20260906083611 58 308 0.0 0.0 0.00 0.00 0.00 96 1010.1
20260906083554 58 308 0.0 0.0 0.00 0.00 0.00 96 1010.1
20260906083529 58 308 0.0 0.0 0.00 0.00 0.00 96 1010.4
20260906083509 58 308 0.0 0.0 0.00 0.00 0.00 96 1010.1
20260906083409 58 308 0.0 0.0 0.00 0.00 0.00 96 1010.1
20260906083310 58 308 0.0 0.0 0.00 0.00 0.00 96 1010.1
20260906083209 58 308 0.0 0.0 0.00 0.00 0.00 96 1010.1
20260906083109 58 308 0.0 0.0 0.00 0.00 0.00 96 1010.1
20260906083057 58 308 0.0 0.0 0.00 0.00 0.00 96 1010.1
20260906083029 58 308 0.0 0.0 0.00 0.00 0.00 96 1010.3
20260906083019 58 308 0.0 0.0 0.00 0.00 0.00 95 1010.0
20260906083015 58 308 0.0 0.0 0.00 0.00 0.00 96 1010.1
20260906082818 58 308 0.0 0.0 0.00 0.00 0.00 95 1010.0
20260906082814 58 308 0.0 0.0 0.00 0.00 0.00 95 1010.0
20260906082604 58 308 0.0 0.0 0.00 0.00 0.00 95 1010.0
20260906082553 58 308 0.0 0.0 0.00 0.00 0.00 95 1009.9
20260906082529 58 308 0.0 0.0 0.00 0.00 0.00 95 1010.2
20260906082504 58 308 0.0 0.0 0.00 0.00 0.00 95 1010.0
20260906082404 58 308 0.0 0.0 0.00 0.00 0.00 95 1009.9
20260906082305 58 308 0.0 0.0 0.00 0.00 0.00 95 1009.9
20260906082203 58 308 0.0 0.0 0.00 0.00 0.00 95 1009.9
20260906082059 58 308 0.0 0.0 0.00 0.00 0.00 95 1010.2
20260906082053 58 308 0.0 0.0 0.00 0.00 0.00 95 1009.9
20260906082033 58 308 0.0 0.0 0.00 0.00 0.00 95 1010.0
20260906082029 58 308 0.0 0.0 0.00 0.00 0.00 95 1010.0
20260906082025 58 308 0.0 0.0 0.00 0.00 0.00 95 1010.0
20260906082019 58 308 0.0 0.0 0.00 0.00 0.00 95 1010.0
20260906081708 58 308 0.0 0.0 0.00 0.00 0.00 95 1009.9
20260906081659 58 308 0.0 0.0 0.00 0.00 0.00 95 1010.0
20260906081529 58 308 0.0 0.0 0.00 0.00 0.00 95 1010.2
20260906081457 58 308 0.0 0.0 0.00 0.00 0.00 95 1010.0
20260906081357 58 308 0.0 0.0 0.00 0.00 0.00 95 1010.0
20260906081256 58 308 0.0 0.0 0.00 0.00 0.00 95 1010.0
20260906081156 58 308 0.0 0.0 0.00 0.00 0.00 95 1010.0
20260906081115 58 308 0.0 0.0 0.00 0.00 0.00 95 1010.0
20260906081103 58 308 0.0 0.0 0.00 0.00 0.00 95 1010.0
20260906081028 58 308 0.0 0.0 0.00 0.00 0.00 95 1010.2
20260906080855 58 308 0.0 0.0 0.00 0.00 0.00 95 1010.0
20260906080755 58 308 0.0 0.0 0.00 0.00 0.00 95 1010.0
20260906080725 58 308 0.0 0.0 0.00 0.00 0.00 95 1010.0
20260906080721 58 308 0.0 0.0 0.00 0.00 0.00 95 1010.0
20260906080715 58 308 0.0 0.0 0.00 0.00 0.00 95 1010.0
20260906080559 58 308 0.0 0.0 0.00 0.00 0.00 95 1010.0
20260906080529 58 308 0.0 0.0 0.00 0.00 0.00 95 1010.2
20260906080351 58 308 0.0 0.0 0.00 0.00 0.00 95 1009.9
20260906080311 58 308 0.0 0.0 0.00 0.00 0.00 95 1010.0
20260906080250 58 308 0.0 0.0 0.00 0.00 0.00 95 1010.0
20260906080204 58 308 0.0 0.0 0.00 0.00 0.00 95 1009.9
20260906080155 58 308 0.0 0.0 0.00 0.00 0.00 95 1010.0
20260906080029 58 308 0.0 0.0 0.00 0.00 0.00 95 1010.1
20260906075949 58 308 0.0 0.0 0.00 0.00 0.00 95 1009.9
20260906075847 58 308 0.0 0.0 0.00 0.00 0.00 95 1009.9
20260906075746 58 308 0.0 0.0 0.00 0.00 0.00 95 1009.9
20260906075645 58 308 0.0 0.0 0.00 0.00 0.00 95 1009.9
20260906075545 58 308 0.0 0.0 0.00 0.00 0.00 95 1009.9
20260906075529 58 308 0.0 0.0 0.00 0.00 0.00 95 1010.2
20260906075444 58 308 0.0 0.0 0.00 0.00 0.00 95 1010.0
20260906075344 58 308 0.0 0.0 0.00 0.00 0.00 95 1009.9
20260906075244 58 308 0.0 0.0 0.00 0.00 0.00 95 1010.0
20260906075143 58 308 0.0 0.0 0.00 0.00 0.00 95 1010.0
20260906075102 58 308 0.0 0.0 0.00 0.00 0.00 95 1009.9
20260906075052 58 308 0.0 0.0 0.00 0.00 0.00 95 1010.0
20260906075029 58 308 0.0 0.0 0.00 0.00 0.00 95 1010.1
20260906074855 58 308 0.0 0.0 0.00 0.00 0.00 95 1010.0
20260906074851 58 308 0.0 0.0 0.00 0.00 0.00 95 1010.0
20260906074641 58 308 0.0 0.0 0.00 0.00 0.00 95 1010.0
20260906074544 58 308 0.0 0.0 0.00 0.00 0.00 95 1010.2
20260906074541 58 308 0.0 0.0 0.00 0.00 0.00 95 1010.0
20260906074439 58 308 0.0 0.0 0.00 0.00 0.00 95 1010.0
20260906074338 58 308 0.0 0.0 0.00 0.00 0.00 95 1010.0
20260906074238 58 308 0.0 0.0 0.00 0.00 0.00 95 1010.0
20260906074138 58 308 0.0 0.0 0.00 0.00 0.00 95 1009.9
20260906074037 58 308 0.0 0.0 0.00 0.00 0.00 95 1010.0
20260906074029 58 308 0.0 0.0 0.00 0.00 0.00 95 1010.2
20260906073936 58 308 0.0 0.0 0.00 0.00 0.00 95 1010.0
20260906073836 58 308 0.0 0.0 0.00 0.00 0.00 95 1010.0
20260906073736 58 308 0.0 0.0 0.00 0.00 0.00 95 1010.0
20260906073636 58 308 0.0 0.0 0.00 0.00 0.00 95 1010.0
20260906073536 58 308 0.0 0.0 0.00 0.00 0.00 95 1010.0
20260906073529 58 308 0.0 0.0 0.00 0.00 0.00 95 1010.2
20260906073436 58 308 0.0 0.0 0.00 0.00 0.00 95 1010.0
20260906073334 58 308 0.0 0.0 0.00 0.00 0.00 95 1009.9
20260906073248 58 308 0.0 0.0 0.00 0.00 0.00 95 1010.0
20260906073244 58 308 0.0 0.0 0.00 0.00 0.00 95 1009.9
20260906073033 58 308 0.0 0.0 0.00 0.00 0.00 95 1010.0
20260906073029 58 308 0.0 0.0 0.00 0.00 0.00 95 1010.2
20260906072932 58 308 0.0 0.0 0.00 0.00 0.00 95 1010.0
20260906072832 58 308 0.0 0.0 0.00 0.00 0.00 95 1009.9
20260906072731 58 308 0.0 0.0 0.00 0.00 0.00 95 1010.0
20260906072629 58 308 0.0 0.0 0.00 0.00 0.00 95 1010.0
20260906072529 58 308 0.0 0.0 0.00 0.00 0.00 95 1010.2
20260906072428 58 308 0.0 0.0 0.00 0.00 0.00 95 1010.0
20260906072328 58 308 0.0 0.0 0.00 0.00 0.00 95 1010.0
20260906072240 58 308 0.0 0.0 0.00 0.00 0.00 95 1010.0
20260906072236 58 308 0.0 0.0 0.00 0.00 0.00 95 1010.0
20260906072029 58 308 0.0 0.0 0.00 0.00 0.00 95 1010.1
20260906072026 58 308 0.0 0.0 0.00 0.00 0.00 95 1009.9
20260906071926 58 308 0.0 0.0 0.00 0.00 0.00 95 1009.9
20260906071826 58 308 0.0 0.0 0.00 0.00 0.00 95 1009.9
20260906071757 58 308 0.0 0.0 0.00 0.00 0.00 95 1009.9
20260906071725 58 308 0.0 0.0 0.00 0.00 0.00 95 1009.9
20260906071644 58 308 0.0 0.0 0.00 0.00 0.00 95 1009.9
20260906071528 59 308 0.0 0.0 0.00 0.00 0.00 95 1010.1
20260906071524 58 308 0.0 0.0 0.00 0.00 0.00 95 1009.9
20260906071424 58 308 0.0 0.0 0.00 0.00 0.00 95 1009.9
20260906071324 58 308 0.0 0.0 0.00 0.00 0.00 95 1009.9
20260906071223 58 308 0.0 0.0 0.00 0.00 0.00 95 1009.9
20260906071123 58 308 0.0 0.0 0.00 0.00 0.00 95 1009.9
20260906071058 59 308 0.0 0.0 0.00 0.00 0.00 95 1010.1
20260906071042 59 308 0.0 0.0 0.00 0.00 0.00 95 1009.9
20260906071031 59 308 0.0 0.0 0.00 0.00 0.00 95 1009.9
20260906070821 59 308 0.0 0.0 0.00 0.00 0.00 95 1009.9
20260906070721 59 308 0.0 0.0 0.00 0.00 0.00 95 1009.8
20260906070647 59 308 0.0 0.0 0.00 0.00 0.00 95 1009.9
20260906070529 59 308 0.0 0.0 0.00 0.00 0.00 95 1010.1
20260906070332 59 308 0.0 0.0 0.00 0.00 0.00 95 1009.9
20260906070328 59 308 0.0 0.0 0.00 0.00 0.00 95 1009.9
20260906070133 59 308 0.0 0.0 0.00 0.00 0.00 95 1009.9
20260906070124 59 308 0.0 0.0 0.00 0.00 0.00 95 1009.9
20260906070029 59 308 0.0 0.0 0.00 0.00 0.00 95 1010.1
20260906065930 59 308 0.0 0.0 0.00 0.00 0.00 95 1009.8
20260906065925 59 308 0.0 0.0 0.00 0.00 0.00 95 1009.9
20260906065716 59 308 0.0 0.0 0.00 0.00 0.00 95 1009.8
20260906065616 59 308 0.0 0.0 0.00 0.00 0.00 95 1009.8
20260906065514 59 308 0.0 0.0 0.00 0.00 0.00 95 1009.9
20260906065414 59 308 0.0 0.0 0.00 0.00 0.00 95 1009.9
20260906065400 59 308 0.0 0.0 0.00 0.00 0.00 95 1010.0
20260906065213 59 308 0.0 0.0 0.00 0.00 0.00 95 1009.9
20260906065138 59 308 0.0 0.0 0.00 0.00 0.00 95 1010.0
20260906065029 59 308 0.0 0.0 0.00 0.00 0.00 95 1010.2
20260906065012 59 308 0.0 0.0 0.00 0.00 0.00 95 1010.0
20260906064924 59 308 0.0 0.0 0.00 0.00 0.00 95 1010.0
20260906064920 59 308 0.0 0.0 0.00 0.00 0.00 95 1010.0
20260906064711 59 308 0.0 0.0 0.00 0.00 0.00 95 1010.0
20260906064610 59 308 0.0 0.0 0.00 0.00 0.00 95 1010.0
20260906064529 59 308 0.0 0.0 0.00 0.00 0.00 95 1010.1
20260906064510 59 308 0.0 0.0 0.00 0.00 0.00 95 1010.0
20260906064409 59 308 0.0 0.0 0.00 0.00 0.00 95 1009.9
20260906064309 59 308 0.0 0.0 0.00 0.00 0.00 95 1010.0
20260906064209 59 308 0.0 0.0 0.00 0.00 0.00 95 1010.0
20260906064108 59 308 0.0 0.0 0.00 0.00 0.00 95 1009.9
20260906064044 59 308 0.0 0.0 0.00 0.00 0.00 95 1010.1
20260906064008 59 308 0.0 0.0 0.00 0.00 0.00 95 1009.9
20260906063908 59 308 0.0 0.0 0.00 0.00 0.00 95 1009.9
20260906063807 59 308 0.0 0.0 0.00 0.00 0.00 95 1009.9
20260906063707 59 308 0.0 0.0 0.00 0.00 0.00 95 1009.9
20260906063607 59 308 0.0 0.0 0.00 0.00 0.00 95 1009.9
20260906063544 59 308 0.0 0.0 0.00 0.00 0.00 95 1010.1
20260906063521 59 308 0.0 0.0 0.00 0.00 0.00 95 1009.9
20260906063516 59 308 0.0 0.0 0.00 0.00 0.00 95 1009.9
20260906063306 59 308 0.0 0.0 0.00 0.00 0.00 95 1009.9
20260906063206 59 308 0.0 0.0 0.00 0.00 0.00 95 1009.9
20260906063105 59 308 0.0 0.0 0.00 0.00 0.00 95 1009.9
20260906063029 59 308 0.0 0.0 0.00 0.00 0.00 95 1010.1
20260906063005 59 308 0.0 0.0 0.00 0.00 0.00 95 1009.9
20260906062905 59 308 0.0 0.0 0.00 0.00 0.00 95 1009.9
20260906062804 59 308 0.0 0.0 0.00 0.00 0.00 95 1009.9
20260906062704 59 308 0.0 0.0 0.00 0.00 0.00 95 1010.0
20260906062603 59 308 0.0 0.0 0.00 0.00 0.00 95 1010.0
20260906062529 59 308 0.0 0.0 0.00 0.00 0.00 95 1010.1
20260906062519 59 308 0.0 0.0 0.00 0.00 0.00 95 1010.0
20260906062503 59 308 0.0 0.0 0.00 0.00 0.00 95 1009.9
20260906062402 59 308 0.0 0.0 0.00 0.00 0.00 95 1010.0
20260906062301 59 308 0.0 0.0 0.00 0.00 0.00 95 1009.9
20260906062202 59 308 0.0 0.0 0.00 0.00 0.00 95 1010.0
20260906062121 59 308 0.0 0.0 0.00 0.00 0.00 95 1009.9
20260906062107 59 308 0.0 0.0 0.00 0.00 0.00 95 1010.0
20260906062029 59 308 0.0 0.0 0.00 0.00 0.00 95 1010.1
20260906061900 59 308 0.0 0.0 0.00 0.00 0.00 95 1010.0
20260906061800 59 308 0.0 0.0 0.00 0.00 0.00 95 1010.0
20260906061713 59 308 0.0 0.0 0.00 0.00 0.00 95 1010.0
20260906061708 59 308 0.0 0.0 0.00 0.00 0.00 95 1010.0
20260906061529 59 308 0.0 0.0 0.00 0.00 0.00 95 1010.2
20260906061519 59 308 0.0 0.0 0.00 0.00 0.00 95 1010.0
20260906061459 59 308 0.0 0.0 0.00 0.00 0.00 95 1010.0
20260906061359 59 308 0.0 0.0 0.00 0.00 0.00 95 1010.0
20260906061257 59 308 0.0 0.0 0.00 0.00 0.00 95 1010.0
20260906061155 59 308 0.0 0.0 0.00 0.00 0.00 95 1010.0
20260906061055 59 308 0.0 0.0 0.00 0.00 0.00 95 1010.0
20260906061044 59 308 0.0 0.0 0.00 0.00 0.00 95 1010.3
20260906061018 59 308 0.0 0.0 0.00 0.00 0.00 95 1010.0
20260906060954 59 308 0.0 0.0 0.00 0.00 0.00 95 1010.1
20260906060854 59 308 0.0 0.0 0.00 0.00 0.00 94 1010.1
20260906060755 59 308 0.0 0.0 0.00 0.00 0.00 94 1010.2
20260906060655 59 308 0.0 0.0 0.00 0.00 0.00 94 1010.1
20260906060555 59 308 0.0 0.0 0.00 0.00 0.00 94 1010.2
20260906060544 59 308 0.0 0.0 0.00 0.00 0.00 94 1010.4
20260906060516 59 308 0.0 0.0 0.00 0.00 0.00 94 1010.2
20260906060454 59 308 0.0 0.0 0.00 0.00 0.00 94 1010.2
20260906060353 59 308 0.0 0.0 0.00 0.00 0.00 94 1010.1
20260906060253 59 308 0.0 0.0 0.00 0.00 0.00 94 1010.2
20260906060238 59 308 0.0 0.0 0.00 0.00 0.00 94 1010.2
20260906060153 59 308 0.0 0.0 0.00 0.00 0.00 94 1010.2
20260906060122 59 308 0.0 0.0 0.00 0.00 0.00 94 1010.2
20260906060029 59 308 0.0 0.0 0.00 0.00 0.00 94 1010.4
20260906055952 59 308 0.0 0.0 0.00 0.00 0.00 94 1010.2
20260906055850 59 308 0.0 0.0 0.00 0.00 0.00 94 1010.2
20260906055750 59 308 0.0 0.0 0.00 0.00 0.00 95 1010.2
20260906055716 60 308 0.0 0.0 0.00 0.00 0.00 95 1010.2
20260906055555 60 308 0.0 0.0 0.00 0.00 0.00 95 1010.2
20260906055529 60 308 0.0 0.0 0.00 0.00 0.00 95 1010.4
20260906055348 60 308 0.0 0.0 0.00 0.00 0.00 95 1010.2
20260906055248 60 308 0.0 0.0 0.00 0.00 0.00 95 1010.2
20260906055147 60 308 0.0 0.0 0.00 0.00 0.00 95 1010.2
20260906055047 60 308 0.0 0.0 0.00 0.00 0.00 95 1010.2
20260906055028 60 308 0.0 0.0 0.00 0.00 0.00 95 1010.4
20260906055012 60 308 0.0 0.0 0.00 0.00 0.00 95 1010.2
20260906054946 60 308 0.0 0.0 0.00 0.00 0.00 95 1010.2
20260906054846 60 308 0.0 0.0 0.00 0.00 0.00 95 1010.2
20260906054746 60 308 0.0 0.0 0.00 0.00 0.00 95 1010.2
20260906054735 60 308 0.0 0.0 0.00 0.00 0.00 95 1010.2
20260906054645 60 308 0.0 0.0 0.00 0.00 0.00 95 1010.2
20260906054620 60 308 0.0 0.0 0.00 0.00 0.00 95 1010.2
20260906054529 60 308 0.0 0.0 0.00 0.00 0.00 95 1010.5
20260906054446 60 308 0.0 0.0 0.00 0.00 0.00 95 1010.3
20260906054346 60 308 0.0 0.0 0.00 0.00 0.00 95 1010.3
20260906054245 60 308 0.0 0.0 0.00 0.00 0.00 95 1010.2
20260906054144 60 308 0.0 0.0 0.00 0.00 0.00 95 1010.3
20260906054103 60 308 0.0 0.0 0.00 0.00 0.00 95 1010.3
20260906054058 60 308 0.0 0.0 0.00 0.00 0.00 94 1010.3
20260906054050 60 308 0.0 0.0 0.00 0.00 0.00 95 1010.3
20260906054029 60 308 0.0 0.0 0.00 0.00 0.00 95 1010.5
20260906053843 60 308 0.0 0.0 0.00 0.00 0.00 95 1010.3
20260906053743 60 308 0.0 0.0 0.00 0.00 0.00 95 1010.3
20260906053642 60 308 0.0 0.0 0.00 0.00 0.00 94 1010.4
20260906053629 60 308 0.0 0.0 0.00 0.00 0.00 94 1010.6
20260906053542 60 308 0.0 0.0 0.00 0.00 0.00 94 1010.3
20260906053510 60 308 0.0 0.0 0.00 0.00 0.00 94 1010.3
20260906053442 60 308 0.0 0.0 0.00 0.00 0.00 94 1010.4
20260906053341 60 308 0.0 0.0 0.00 0.00 0.00 94 1010.4
20260906053240 60 308 0.0 0.0 0.00 0.00 0.00 94 1010.5
20260906053140 60 308 0.0 0.0 0.00 0.00 0.00 94 1010.5
20260906053029 60 308 0.0 0.0 0.00 0.00 0.00 94 1010.7
20260906053009 60 308 0.0 0.0 0.00 0.00 0.00 94 1010.5
20260906052958 60 308 0.0 0.0 0.00 0.00 0.00 94 1010.5
20260906052845 60 308 0.0 0.0 0.00 0.00 0.00 94 1010.4
20260906052635 60 308 0.0 0.0 0.00 0.00 0.00 94 1010.5
20260906052529 60 308 0.0 0.0 0.00 0.00 0.00 94 1010.7
20260906052507 60 308 0.0 0.0 0.00 0.00 0.00 94 1010.4
20260906052435 60 308 0.0 0.0 0.00 0.00 0.00 94 1010.5
20260906052335 60 308 0.0 0.0 0.00 0.00 0.00 94 1010.4
20260906052252 60 308 0.0 0.0 0.00 0.00 0.00 94 1010.4
20260906052248 60 308 0.0 0.0 0.00 0.00 0.00 94 1010.4
20260906052242 60 308 0.0 0.0 0.00 0.00 0.00 94 1010.4
20260906052114 60 308 0.0 0.0 0.00 0.00 0.00 94 1010.4
20260906052029 60 308 0.0 0.0 0.00 0.00 0.00 94 1010.5
20260906051934 60 308 0.0 0.0 0.00 0.00 0.00 94 1010.3
20260906051858 60 308 0.0 0.0 0.00 0.00 0.00 94 1010.4
20260906051853 60 308 0.0 0.0 0.00 0.00 0.00 94 1010.4
20260906051740 60 308 0.0 0.0 0.00 0.00 0.00 94 1010.4
20260906051613 60 308 0.0 0.0 0.00 0.00 0.00 94 1010.4
20260906051529 60 308 0.0 0.0 0.00 0.00 0.00 94 1010.6
20260906051430 60 308 0.0 0.0 0.00 0.00 0.00 94 1010.4
20260906051329 60 308 0.0 0.0 0.00 0.00 0.00 94 1010.4
20260906051229 60 308 0.0 0.0 0.00 0.00 0.00 94 1010.4
20260906051129 60 308 0.0 0.0 0.00 0.00 0.00 94 1010.4
20260906051029 60 308 0.0 0.0 0.00 0.00 0.00 94 1010.6
20260906051005 60 308 0.0 0.0 0.00 0.00 0.00 94 1010.4
20260906050928 60 308 0.0 0.0 0.00 0.00 0.00 94 1010.4
20260906050827 60 308 0.0 0.0 0.00 0.00 0.00 94 1010.4
20260906050741 60 308 0.0 0.0 0.00 0.00 0.00 94 1010.4
20260906050736 60 308 0.0 0.0 0.00 0.00 0.00 94 1010.4
20260906050529 60 308 0.0 0.0 0.00 0.00 0.00 94 1010.6
20260906050503 60 308 0.0 0.0 0.00 0.00 0.00 94 1010.4
20260906050439 60 308 0.0 0.0 0.00 0.00 0.00 94 1010.4
20260906050434 60 308 0.0 0.0 0.00 0.00 0.00 94 1010.4
20260906050225 60 308 0.0 0.0 0.00 0.00 0.00 94 1010.4
20260906050124 60 308 0.0 0.0 0.00 0.00 0.00 94 1010.4
20260906050044 60 308 0.0 0.0 0.00 0.00 0.00 94 1010.6
20260906050031 60 308 0.0 0.0 0.00 0.00 0.00 94 1010.4
20260906045823 60 308 0.0 0.0 0.00 0.00 0.00 94 1010.4
20260906045740 60 308 0.0 0.0 0.00 0.00 0.00 94 1010.3
20260906045731 60 308 0.0 0.0 0.00 0.00 0.00 94 1010.3
20260906045727 60 308 0.0 0.0 0.00 0.00 0.00 94 1010.4
20260906045718 60 308 0.0 0.0 0.00 0.00 0.00 94 1010.3
20260906045529 60 308 0.0 0.0 0.00 0.00 0.00 94 1010.5
20260906045422 60 308 0.0 0.0 0.00 0.00 0.00 94 1010.3
20260906045334 60 308 0.0 0.0 0.00 0.00 0.00 94 1010.3
20260906045330 60 308 0.0 0.0 0.00 0.00 0.00 94 1010.3
20260906045121 60 308 0.0 0.0 0.00 0.00 0.00 94 1010.4
20260906045029 60 308 0.0 0.0 0.00 0.00 0.00 94 1010.6
20260906045020 60 308 0.0 0.0 0.00 0.00 0.00 94 1010.4
20260906045002 60 308 0.0 0.0 0.00 0.00 0.00 94 1010.4
20260906044920 60 308 0.0 0.0 0.00 0.00 0.00 94 1010.4
20260906044819 60 308 0.0 0.0 0.00 0.00 0.00 94 1010.3
20260906044719 60 308 0.0 0.0 0.00 0.00 0.00 94 1010.3
20260906044619 60 308 0.0 0.0 0.00 0.00 0.00 94 1010.3
20260906044529 60 308 0.0 0.0 0.00 0.00 0.00 94 1010.5
20260906044518 60 308 0.0 0.0 0.00 0.00 0.00 94 1010.3
20260906044501 60 308 0.0 0.0 0.00 0.00 0.00 94 1010.3
20260906044419 60 308 0.0 0.0 0.00 0.00 0.00 94 1010.3
20260906044318 60 308 0.0 0.0 0.00 0.00 0.00 94 1010.4
20260906044230 60 308 0.0 0.0 0.00 0.00 0.00 94 1010.4
20260906044226 60 308 0.0 0.0 0.00 0.00 0.00 94 1010.4
20260906044029 60 308 0.0 0.0 0.00 0.00 0.00 94 1010.6
20260906044016 60 308 0.0 0.0 0.00 0.00 0.00 94 1010.4
20260906044000 60 308 0.0 0.0 0.00 0.00 0.00 94 1010.4
20260906043916 60 308 0.0 0.0 0.00 0.00 0.00 94 1010.4
20260906043816 60 308 0.0 0.0 0.00 0.00 0.00 94 1010.4
20260906043715 60 308 0.0 0.0 0.00 0.00 0.00 93 1010.4
20260906043615 60 308 0.0 0.0 0.00 0.00 0.00 93 1010.4
20260906043529 61 308 0.0 0.0 0.00 0.00 0.00 93 1010.6
20260906043514 60 308 0.0 0.0 0.00 0.00 0.00 93 1010.4
20260906043500 60 308 0.0 0.0 0.00 0.00 0.00 93 1010.4
20260906043415 60 308 0.0 0.0 0.00 0.00 0.00 94 1010.4
20260906043315 60 308 0.0 0.0 0.00 0.00 0.00 94 1010.4
20260906043234 61 308 0.0 0.0 0.00 0.00 0.00 94 1010.4
20260906043229 61 308 0.0 0.0 0.00 0.00 0.00 94 1010.3
20260906043225 61 308 0.0 0.0 0.00 0.00 0.00 94 1010.4
20260906043216 61 308 0.0 0.0 0.00 0.00 0.00 94 1010.4
20260906043029 61 308 0.0 0.0 0.00 0.00 0.00 94 1010.5
20260906042913 61 308 0.0 0.0 0.00 0.00 0.00 94 1010.3
20260906042813 61 308 0.0 0.0 0.00 0.00 0.00 94 1010.4
20260906042712 61 308 0.0 0.0 0.00 0.00 0.00 94 1010.3
20260906042612 61 308 0.0 0.0 0.00 0.00 0.00 94 1010.3
20260906042529 61 308 0.0 0.0 0.00 0.00 0.00 94 1010.5
20260906042511 61 308 0.0 0.0 0.00 0.00 0.00 94 1010.3
20260906042459 61 308 0.0 0.0 0.00 0.00 0.00 94 1010.3
20260906042410 61 308 0.0 0.0 0.00 0.00 0.00 93 1010.3
20260906042310 61 308 0.0 0.0 0.00 0.00 0.00 93 1010.3
20260906042208 61 308 0.0 0.0 0.00 0.00 0.00 93 1010.3
20260906042109 61 308 0.0 0.0 0.00 0.00 0.00 93 1010.3
20260906042029 61 308 0.0 0.0 0.00 0.00 0.00 93 1010.5
20260906042008 61 308 0.0 0.0 0.00 0.00 0.00 93 1010.3
20260906041958 61 308 0.0 0.0 0.00 0.00 0.00 93 1010.3
20260906041907 61 308 0.0 0.0 0.00 0.00 0.00 93 1010.3
20260906041807 61 308 0.0 0.0 0.00 0.00 0.00 93 1010.3
20260906041717 61 308 0.0 0.0 0.00 0.00 0.00 93 1010.3
20260906041707 61 308 0.0 0.0 0.00 0.00 0.00 93 1010.3
20260906041613 61 308 0.0 0.0 0.00 0.00 0.00 93 1010.3
20260906041604 61 308 0.0 0.0 0.00 0.00 0.00 93 1010.3
20260906041544 61 308 0.0 0.0 0.00 0.00 0.00 93 1010.5
20260906041406 61 308 0.0 0.0 0.00 0.00 0.00 93 1010.3
20260906041327 61 308 0.0 0.0 0.00 0.00 0.00 93 1010.3
20260906041214 61 308 0.0 0.0 0.00 0.00 0.00 93 1010.3
20260906041029 61 308 0.0 0.0 0.00 0.00 0.00 93 1010.5
20260906041003 61 308 0.0 0.0 0.00 0.00 0.00 93 1010.3
20260906040956 61 308 0.0 0.0 0.00 0.00 0.00 93 1010.3
20260906040904 61 308 0.0 0.0 0.00 0.00 0.00 93 1010.3
20260906040802 61 308 0.0 0.0 0.00 0.00 0.00 93 1010.3
20260906040701 61 308 0.0 0.0 0.00 0.00 0.00 93 1010.3
20260906040601 61 308 0.0 0.0 0.00 0.00 0.00 93 1010.2
20260906040529 61 308 0.0 0.0 0.00 0.00 0.00 93 1010.4
20260906040457 61 308 0.0 0.0 0.00 0.00 0.00 93 1010.2
20260906040413 61 308 0.0 0.0 0.00 0.00 0.00 93 1010.2
20260906040408 61 308 0.0 0.0 0.00 0.00 0.00 93 1010.2
20260906040159 61 308 0.0 0.0 0.00 0.00 0.00 93 1010.2
20260906040059 61 308 0.0 0.0 0.00 0.00 0.00 93 1010.2
20260906040029 61 308 0.0 0.0 0.00 0.00 0.00 93 1010.4
20260906035955 61 308 0.0 0.0 0.00 0.00 0.00 93 1010.2
20260906035857 61 308 0.0 0.0 0.00 0.00 0.00 93 1010.2
20260906035757 61 308 0.0 0.0 0.00 0.00 0.00 93 1010.2
20260906035656 61 308 0.0 0.0 0.00 0.00 0.00 93 1010.2
20260906035556 61 308 0.0 0.0 0.00 0.00 0.00 93 1010.2
20260906035529 61 308 0.0 0.0 0.00 0.00 0.00 93 1010.4
20260906035457 61 308 0.0 0.0 0.00 0.00 0.00 93 1010.2
20260906035355 61 308 0.0 0.0 0.00 0.00 0.00 93 1010.2
20260906035255 61 308 0.0 0.0 0.00 0.00 0.00 93 1010.2
20260906035154 61 308 0.0 0.0 0.00 0.00 0.00 93 1010.1
20260906035054 61 308 0.0 0.0 0.00 0.00 0.00 93 1010.1
20260906035029 61 308 0.0 0.0 0.00 0.00 0.00 93 1010.3
20260906034954 61 308 0.0 0.0 0.00 0.00 0.00 93 1010.1
20260906034853 61 308 0.0 0.0 0.00 0.00 0.00 93 1010.1
20260906034806 61 308 0.0 0.0 0.00 0.00 0.00 93 1010.1
20260906034802 61 308 0.0 0.0 0.00 0.00 0.00 93 1010.1
20260906034552 61 308 0.0 0.0 0.00 0.00 0.00 93 1010.0
20260906034529 61 308 0.0 0.0 0.00 0.00 0.00 93 1010.2
20260906034452 61 308 0.0 0.0 0.00 0.00 0.00 93 1010.0
20260906034413 61 308 0.0 0.0 0.00 0.00 0.00 93 1010.0
20260906034300 61 308 0.0 0.0 0.00 0.00 0.00 93 1010.0
20260906034125 61 308 0.0 0.0 0.00 0.00 0.00 92 1010.0
20260906034116 61 308 0.0 0.0 0.00 0.00 0.00 92 1010.0
20260906034029 61 308 0.0 0.0 0.00 0.00 0.00 92 1010.2
20260906033857 61 308 0.0 0.0 0.00 0.00 0.00 92 1010.0
20260906033648 62 308 0.0 0.0 0.00 0.00 0.00 92 1010.1
20260906033547 62 308 0.0 0.0 0.00 0.00 0.00 92 1010.0
20260906033544 62 308 0.0 0.0 0.00 0.00 0.00 92 1010.2
20260906033447 62 308 0.0 0.0 0.00 0.00 0.00 92 1010.0
20260906033348 62 308 0.0 0.0 0.00 0.00 0.00 92 1010.1
20260906033309 62 308 0.0 0.0 0.00 0.00 0.00 92 1010.0
20260906033156 62 308 0.0 0.0 0.00 0.00 0.00 93 1010.0
20260906033029 62 308 0.0 0.0 0.00 0.00 0.00 93 1010.2
20260906032947 62 308 0.0 0.0 0.00 0.00 0.00 93 1010.0
20260906032846 62 308 0.0 0.0 0.00 0.00 0.00 92 1010.0
20260906032746 62 308 0.0 0.0 0.00 0.00 0.00 92 1010.1
20260906032647 62 308 0.0 0.0 0.00 0.00 0.00 92 1010.1
20260906032547 62 308 0.0 0.0 0.00 0.00 0.00 92 1010.1
20260906032544 62 308 0.0 0.0 0.00 0.00 0.00 92 1010.3
20260906032445 62 308 0.0 0.0 0.00 0.00 0.00 92 1010.1
20260906032345 62 308 0.0 0.0 0.00 0.00 0.00 92 1010.1
20260906032244 62 308 0.0 0.0 0.00 0.00 0.00 92 1010.0
20260906032144 62 308 0.0 0.0 0.00 0.00 0.00 92 1010.0
20260906032045 62 308 0.0 0.0 0.00 0.00 0.00 92 1010.0
20260906032029 62 308 0.0 0.0 0.00 0.00 0.00 92 1010.2
20260906032017 62 308 0.0 0.0 0.00 0.00 0.00 92 1010.0
20260906032013 62 308 0.0 0.0 0.00 0.00 0.00 92 1009.9
20260906032002 62 308 0.0 0.0 0.00 0.00 0.00 92 1010.0
20260906031643 62 308 0.0 0.0 0.00 0.00 0.00 92 1010.0
20260906031544 62 308 0.0 0.0 0.00 0.00 0.00 92 1010.2
20260906031442 62 308 0.0 0.0 0.00 0.00 0.00 92 1010.0
20260906031409 62 308 0.0 0.0 0.00 0.00 0.00 92 1010.0
20260906031405 62 308 0.0 0.0 0.00 0.00 0.00 92 1010.0
20260906031359 62 308 0.0 0.0 0.00 0.00 0.00 92 1010.0
20260906031055 62 308 0.0 0.0 0.00 0.00 0.00 92 1010.0
20260906031045 62 308 0.0 0.0 0.00 0.00 0.00 92 1010.0
20260906031029 62 308 0.0 0.0 0.00 0.00 0.00 92 1010.2
20260906030840 62 308 0.0 0.0 0.00 0.00 0.00 92 1010.0
20260906030739 62 308 0.0 0.0 0.00 0.00 0.00 92 1010.0
20260906030638 62 308 0.0 0.0 0.00 0.00 0.00 92 1010.0
20260906030553 62 308 0.0 0.0 0.00 0.00 0.00 92 1010.0
20260906030544 62 308 0.0 0.0 0.00 0.00 0.00 92 1010.0
20260906030529 62 308 0.0 0.0 0.00 0.00 0.00 92 1010.2
20260906030338 62 308 0.0 0.0 0.00 0.00 0.00 92 1010.0
20260906030236 62 308 0.0 0.0 0.00 0.00 0.00 92 1009.9
20260906030136 62 308 0.0 0.0 0.00 0.00 0.00 92 1009.9
20260906030044 62 308 0.0 0.0 0.00 0.00 0.00 92 1010.1
20260906030036 62 308 0.0 0.0 0.00 0.00 0.00 92 1009.9
20260906025954 62 308 0.0 0.0 0.00 0.00 0.00 92 1009.9
20260906025943 62 308 0.0 0.0 0.00 0.00 0.00 92 1009.9
20260906025731 62 308 0.0 0.0 0.00 0.00 0.00 91 1009.9
20260906025631 62 308 0.0 0.0 0.00 0.00 0.00 91 1009.9
20260906025545 62 308 0.0 0.0 0.00 0.00 0.00 91 1009.9
20260906025537 62 308 0.0 0.0 0.00 0.00 0.00 91 1009.8
20260906025529 63 308 0.0 0.0 0.00 0.00 0.00 91 1010.0
20260906025330 63 308 0.0 0.0 0.00 0.00 0.00 91 1009.8
20260906025316 63 308 0.0 0.0 0.00 0.00 0.00 91 1009.8
20260906025313 63 308 0.0 0.0 0.00 0.00 0.00 91 1009.8
20260906025307 63 308 0.0 0.0 0.00 0.00 0.00 91 1009.8
20260906025302 63 308 0.0 0.0 0.00 0.00 0.00 91 1009.8
20260906025035 63 308 0.0 0.0 0.00 0.00 0.00 91 1009.8
20260906025029 63 308 0.0 0.0 0.00 0.00 0.00 91 1010.0
20260906024829 63 308 0.0 0.0 0.00 0.00 0.00 91 1009.8
20260906024729 63 308 0.0 0.0 0.00 0.00 0.00 91 1009.8
20260906024642 63 308 0.0 0.0 0.00 0.00 0.00 91 1009.8
20260906024637 63 308 0.0 0.0 0.00 0.00 0.00 91 1009.8
20260906024529 63 308 0.0 0.0 0.00 0.00 0.00 91 1010.1
20260906024426 63 308 0.0 0.0 0.00 0.00 0.00 91 1009.9
20260906024326 63 308 0.0 0.0 0.00 0.00 0.00 91 1009.9
20260906024226 63 308 0.0 0.0 0.00 0.00 0.00 91 1009.9
20260906024125 63 308 0.0 0.0 0.00 0.00 0.00 91 1009.9
20260906024029 63 308 0.0 0.0 0.00 0.00 0.00 91 1010.1
20260906024025 63 308 0.0 0.0 0.00 0.00 0.00 91 1009.9
20260906023924 63 308 0.0 0.0 0.00 0.00 0.00 91 1009.9
20260906023824 63 308 0.0 0.0 0.00 0.00 0.00 91 1009.8
20260906023724 63 308 0.0 0.0 0.00 0.00 0.00 91 1009.9
20260906023624 63 308 0.0 0.0 0.00 0.00 0.00 91 1009.8
20260906023530 63 308 0.0 0.0 0.00 0.00 0.00 91 1009.9
20260906023523 63 308 0.0 0.0 0.00 0.00 0.00 91 1009.8
20260906023423 63 308 0.0 0.0 0.00 0.00 0.00 91 1009.7
20260906023323 63 308 0.0 0.0 0.00 0.00 0.00 91 1009.8
20260906023222 63 308 0.0 0.0 0.00 0.00 0.00 91 1009.8
20260906023122 63 308 0.0 0.0 0.00 0.00 0.00 91 1009.7
20260906023029 63 308 0.0 0.0 0.00 0.00 0.00 90 1010.0
20260906023019 63 308 0.0 0.0 0.00 0.00 0.00 90 1009.8
20260906022919 63 308 0.0 0.0 0.00 0.00 0.00 90 1009.8
20260906022819 63 308 0.0 0.0 0.00 0.00 0.00 90 1009.8
20260906022718 63 308 0.0 0.0 0.00 0.00 0.00 90 1009.8
20260906022644 63 308 0.0 0.0 0.00 0.00 0.00 90 1009.8
20260906022531 63 308 0.0 0.0 0.00 0.00 0.00 90 1009.8
20260906022529 63 308 0.0 0.0 0.00 0.00 0.00 90 1010.0
20260906022523 63 308 0.0 0.0 0.00 0.00 0.00 90 1009.8
20260906022316 63 308 0.0 0.0 0.00 0.00 0.00 90 1009.8
20260906022216 63 308 0.0 0.0 0.00 0.00 0.00 90 1009.8
20260906022115 63 308 0.0 0.0 0.00 0.00 0.00 90 1009.8
20260906022029 63 308 0.0 0.0 0.00 0.00 0.00 90 1009.9
20260906022015 63 308 0.0 0.0 0.00 0.00 0.00 90 1009.8
20260906021914 63 308 0.0 0.0 0.00 0.00 0.00 90 1009.7
20260906021829 64 308 0.0 0.0 0.00 0.00 0.00 90 1009.7
20260906021823 63 308 0.0 0.0 0.00 0.00 0.00 90 1009.7
20260906021613 64 308 0.0 0.0 0.00 0.00 0.00 90 1009.7
20260906021532 64 308 0.0 0.0 0.00 0.00 0.00 90 1009.8
20260906021529 64 308 0.0 0.0 0.00 0.00 0.00 90 1009.9
20260906021526 64 308 0.0 0.0 0.00 0.00 0.00 90 1009.7
20260906021519 64 308 0.0 0.0 0.00 0.00 0.00 90 1009.7
20260906021313 64 308 0.0 0.0 0.00 0.00 0.00 90 1009.8
20260906021211 64 308 0.0 0.0 0.00 0.00 0.00 90 1009.9
20260906021111 64 308 0.0 0.0 0.00 0.00 0.00 90 1009.8
20260906021029 64 308 0.0 0.0 0.00 0.00 0.00 90 1009.9
20260906021010 64 308 0.0 0.0 0.00 0.00 0.00 90 1009.8
20260906020909 64 308 0.0 0.0 0.00 0.00 0.00 90 1009.8
20260906020809 64 308 0.0 0.0 0.00 0.00 0.00 89 1009.8
20260906020709 64 308 0.0 0.0 0.00 0.00 0.00 89 1009.9
20260906020659 64 308 0.0 0.0 0.00 0.00 0.00 89 1009.9
20260906020609 64 308 0.0 0.0 0.00 0.00 0.00 89 1009.8
20260906020545 64 308 0.0 0.0 0.00 0.00 0.00 89 1009.9
20260906020529 64 308 0.0 0.0 0.00 0.00 0.00 89 1010.0
20260906020408 64 308 0.0 0.0 0.00 0.00 0.00 89 1009.9
20260906020308 64 308 0.0 0.0 0.00 0.00 0.00 89 1009.9
20260906020208 64 308 0.0 0.0 0.00 0.00 0.00 89 1009.9
20260906020107 64 308 0.0 0.0 0.00 0.00 0.00 89 1009.9
20260906020029 64 308 0.0 0.0 0.00 0.00 0.00 89 1010.0
20260906020020 64 308 0.0 0.0 0.00 0.00 0.00 89 1009.9
20260906020012 64 308 0.0 0.0 0.00 0.00 0.00 89 1009.9
20260906015805 64 308 0.0 0.0 0.00 0.00 0.00 89 1009.8
20260906015702 64 308 0.0 0.0 0.00 0.00 0.00 89 1009.8
20260906015602 64 308 0.0 0.0 0.00 0.00 0.00 89 1009.8
20260906015544 64 308 0.0 0.0 0.00 0.00 0.00 89 1009.9
20260906015502 64 308 0.0 0.0 0.00 0.00 0.00 89 1009.8
20260906015434 64 308 0.0 0.0 0.00 0.00 0.00 88 1009.8
20260906015401 64 308 0.0 0.0 0.00 0.00 0.00 88 1009.8
20260906015301 64 308 0.0 0.0 0.00 0.00 0.00 88 1009.9
20260906015201 64 308 0.0 0.0 0.00 0.00 0.00 88 1009.9
20260906015130 64 308 0.0 0.0 0.00 0.00 0.00 88 1009.9
20260906015126 65 308 0.0 0.0 0.00 0.00 0.00 88 1009.8
20260906015121 64 308 0.0 0.0 0.00 0.00 0.00 88 1009.9
20260906015029 64 308 0.0 0.0 0.00 0.00 0.00 88 1010.0
20260906015004 64 308 0.0 0.0 0.00 0.00 0.00 88 1009.9
20260906014757 65 308 0.0 0.0 0.00 0.00 0.00 88 1009.9
20260906014655 65 308 0.0 0.0 0.00 0.00 0.00 88 1009.9
20260906014610 65 308 0.0 0.0 0.00 0.00 0.00 88 1009.9
20260906014604 65 308 0.0 0.0 0.00 0.00 0.00 88 1009.8
20260906014529 65 308 0.0 0.0 0.00 0.00 0.00 88 1010.0
20260906014432 65 308 0.0 0.0 0.00 0.00 0.00 88 1009.9
20260906014355 65 308 0.0 0.0 0.00 0.00 0.00 88 1009.9
20260906014254 65 308 0.0 0.0 0.00 0.00 0.00 88 1009.9
20260906014153 65 308 0.0 0.0 0.00 0.00 0.00 87 1009.9
20260906014140 65 308 0.0 0.0 0.00 0.00 0.00 87 1009.8
20260906014136 65 308 0.0 0.0 0.00 0.00 0.00 87 1009.8
20260906014130 65 308 0.0 0.0 0.00 0.00 0.00 87 1009.8
20260906014125 65 308 0.0 0.0 0.00 0.00 0.00 87 1009.9
20260906014030 65 308 0.0 0.0 0.00 0.00 0.00 87 1009.9
20260906014008 65 308 0.0 0.0 0.00 0.00 0.00 87 1009.8
20260906013651 65 308 0.0 0.0 0.00 0.00 0.00 87 1009.8
20260906013552 65 308 0.0 0.0 0.00 0.00 0.00 87 1009.8
20260906013529 65 308 0.0 0.0 0.00 0.00 0.00 87 1009.9
20260906013430 65 308 0.0 0.0 0.00 0.00 0.00 87 1009.8
20260906013405 65 308 0.0 0.0 0.00 0.00 0.00 87 1009.7
20260906013400 65 308 0.0 0.0 0.00 0.00 0.00 87 1009.7
20260906013205 65 308 0.0 0.0 0.00 0.00 0.00 87 1009.7
20260906013159 65 308 0.0 0.0 0.00 0.00 0.00 87 1009.7
20260906013029 65 308 0.0 0.0 0.00 0.00 0.00 87 1009.8
20260906012928 65 308 0.0 0.0 0.00 0.00 0.00 87 1009.7
20260906012849 65 308 0.0 0.0 0.00 0.00 0.00 87 1009.7
20260906012749 65 308 0.0 0.0 0.00 0.00 0.00 87 1009.6
20260906012703 65 308 0.0 0.0 0.00 0.00 0.00 87 1009.6
20260906012657 65 308 0.0 0.0 0.00 0.00 0.00 87 1009.6
20260906012529 65 308 0.0 0.0 0.00 0.00 0.00 87 1009.7
20260906012518 65 308 0.0 0.0 0.00 0.00 0.00 86 1009.6
20260906012514 65 308 0.0 0.0 0.00 0.00 0.00 86 1009.6
20260906012501 65 308 0.0 0.0 0.00 0.00 0.00 86 1009.6
20260906012144 65 308 0.0 0.0 0.00 0.00 0.00 86 1009.5
20260906012043 66 308 0.0 0.0 0.00 0.00 0.00 85 1009.5
20260906012029 66 308 0.0 0.0 0.00 0.00 0.00 85 1009.7
20260906011926 66 308 0.0 0.0 0.00 0.00 0.00 85 1009.6
20260906011857 66 308 0.0 0.0 0.00 0.00 0.00 85 1009.5
20260906011851 66 308 0.0 0.0 0.00 0.00 0.00 85 1009.6
20260906011642 66 308 0.0 0.0 0.00 0.00 0.00 85 1009.5
20260906011541 66 308 0.0 0.0 0.00 0.00 0.00 85 1009.5
20260906011529 66 308 0.0 0.0 0.00 0.00 0.00 85 1009.6
20260906011425 66 308 0.0 0.0 0.00 0.00 0.00 85 1009.5
20260906011341 66 308 0.0 0.0 0.00 0.00 0.00 84 1009.5
20260906011239 66 308 0.0 0.0 0.00 0.00 0.00 84 1009.4
20260906011139 66 308 0.0 0.0 0.00 0.00 0.00 84 1009.5
20260906011039 66 308 0.0 0.0 0.00 0.00 0.00 84 1009.5
20260906011029 66 308 0.0 0.0 0.00 0.00 0.00 84 1009.5
20260906011010 66 308 0.0 0.0 0.00 0.00 0.00 84 1009.4
20260906011006 66 308 0.0 0.0 0.00 0.00 0.00 84 1009.5
20260906010954 66 308 0.0 0.0 0.00 0.00 0.00 84 1009.4
20260906010651 66 308 0.0 0.0 0.00 0.00 0.00 84 1009.4
20260906010645 66 308 0.0 0.0 0.00 0.00 0.00 84 1009.5
20260906010529 66 308 0.0 0.0 0.00 0.00 0.00 84 1009.5
20260906010422 66 308 0.0 0.0 0.00 0.00 0.00 84 1009.4
20260906010347 66 308 0.0 0.0 0.00 0.00 0.00 83 1009.3
20260906010342 66 308 0.0 0.0 0.00 0.00 0.00 83 1009.4
20260906010132 67 308 0.0 0.0 0.00 0.00 0.00 83 1009.3
20260906010031 67 308 0.0 0.0 0.00 0.00 0.00 83 1009.3
20260906010029 67 308 0.0 0.0 0.00 0.00 0.00 83 1009.4
20260906005920 67 308 0.0 0.0 0.00 0.00 0.00 83 1009.3
20260906005829 67 308 0.0 0.0 0.00 0.00 0.00 82 1009.2
20260906005729 67 308 0.0 0.0 0.00 0.00 0.00 82 1009.3
20260906005629 67 308 0.0 0.0 0.00 0.00 0.00 82 1009.3
20260906005529 67 308 0.0 0.0 0.00 0.00 0.00 82 1009.3
20260906005527 67 308 0.0 0.0 0.00 0.00 0.00 82 1009.3
20260906005420 67 308 0.0 0.0 0.00 0.00 0.00 82 1009.2
20260906005326 67 308 0.0 0.0 0.00 0.00 0.00 82 1009.2
20260906005226 67 308 0.0 0.0 0.00 0.00 0.00 82 1009.2
20260906005140 67 308 0.0 0.0 0.00 0.00 0.00 81 1009.1
20260906005134 67 308 0.0 0.0 0.00 0.00 0.00 81 1009.1
20260906005044 67 308 0.0 0.0 0.00 0.00 0.00 81 1009.2
20260906004921 67 308 0.0 0.0 0.00 0.00 0.00 81 1009.1
20260906004901 67 308 0.0 0.0 0.00 0.00 0.00 81 1009.0
20260906004856 67 308 0.0 0.0 0.00 0.00 0.00 81 1009.1
20260906004633 67 308 0.0 0.0 0.00 0.00 0.00 81 1009.1
20260906004530 68 308 0.0 0.0 0.00 0.00 0.00 81 1009.2
20260906004419 67 308 0.0 0.0 0.00 0.00 0.00 81 1009.1
20260906004323 68 308 0.0 0.0 0.00 0.00 0.00 80 1009.1
20260906004223 68 308 0.0 0.0 0.00 0.00 0.00 80 1009.1
20260906004136 68 308 0.0 0.0 0.00 0.00 0.00 80 1009.1
20260906004130 68 308 0.0 0.0 0.00 0.00 0.00 80 1009.1
20260906004029 68 308 0.0 0.0 0.00 0.00 0.00 80 1009.2
20260906003938 68 308 0.0 0.0 0.00 0.00 0.00 80 1009.1
20260906003928 68 308 0.0 0.0 0.00 0.00 0.00 80 1009.1
20260906003718 68 308 0.0 0.0 0.00 0.00 0.00 80 1009.1
20260906003617 68 308 0.0 0.0 0.00 0.00 0.00 80 1009.1
20260906003531 68 308 0.0 0.0 0.00 0.00 0.00 79 1009.0
20260906003529 68 308 0.0 0.0 0.00 0.00 0.00 79 1009.1
20260906003522 68 308 0.0 0.0 0.00 0.00 0.00 79 1009.0
20260906003317 68 308 0.0 0.0 0.00 0.00 0.00 79 1009.0
20260906003217 68 308 0.0 0.0 0.00 0.00 0.00 79 1009.0
20260906003116 69 308 0.0 0.0 0.00 0.00 0.00 79 1009.0
20260906003043 69 308 0.0 0.0 0.00 0.00 0.00 79 1008.9
20260906003029 69 308 0.0 0.0 0.00 0.00 0.00 79 1009.0
20260906002924 69 308 0.0 0.0 0.00 0.00 0.00 78 1008.9
20260906002713 69 308 0.0 0.0 0.00 0.00 0.00 78 1008.9
20260906002628 69 308 0.0 0.0 0.00 0.00 0.00 77 1008.9
20260906002623 69 308 0.0 0.0 0.00 0.00 0.00 78 1008.9
20260906002529 69 308 0.0 0.0 0.00 0.00 0.00 77 1008.9
20260906002413 69 308 0.0 0.0 0.00 0.00 0.00 77 1008.8
20260906002313 69 308 0.0 0.0 0.00 0.00 0.00 77 1008.8
20260906002213 69 308 0.0 0.0 0.00 0.00 0.00 77 1008.8
20260906002113 69 308 0.0 0.0 0.00 0.00 0.00 77 1008.7
20260906002030 69 308 0.0 0.0 0.00 0.00 0.00 77 1008.8
20260906002011 69 308 0.0 0.0 0.00 0.00 0.00 77 1008.8
20260906001912 69 308 0.0 0.0 0.00 0.00 0.00 77 1008.8
20260906001825 69 308 0.0 0.0 0.00 0.00 0.00 76 1008.8
20260906001820 69 308 0.0 0.0 0.00 0.00 0.00 76 1008.8
20260906001645 70 308 0.0 0.0 0.00 0.00 0.00 76 1008.8
20260906001640 70 308 0.0 0.0 0.00 0.00 0.00 76 1008.8
20260906001635 70 308 0.0 0.0 0.00 0.00 0.00 76 1008.8
20260906001529 70 308 0.0 0.0 0.00 0.00 0.00 76 1008.8
20260906001517 70 308 0.0 0.0 0.00 0.00 0.00 76 1008.8
20260906001310 70 308 0.0 0.0 0.00 0.00 0.00 75 1008.8
20260906001209 70 308 0.0 0.0 0.00 0.00 0.00 75 1008.8
20260906001109 70 308 0.0 0.0 0.00 0.00 0.00 75 1008.8
20260906001029 70 308 0.0 0.0 0.00 0.00 0.00 75 1008.7
20260906001009 70 308 0.0 0.0 0.00 0.00 0.00 75 1008.8
20260906000908 70 308 0.0 0.0 0.00 0.00 0.00 74 1008.7
20260906000808 70 308 0.0 0.0 0.00 0.00 0.00 74 1008.7
20260906000722 71 308 0.0 0.0 0.00 0.00 0.00 74 1008.7
20260906000716 71 308 0.0 0.0 0.00 0.00 0.00 74 1008.6
20260906000529 71 308 0.0 0.0 0.00 0.00 0.00 74 1008.6
20260906000506 71 308 0.0 0.0 0.00 0.00 0.00 74 1008.6
20260906000405 71 308 0.0 0.0 0.00 0.00 0.00 74 1008.6
20260906000305 71 308 0.0 0.0 0.00 0.00 0.00 74 1008.5
20260906000205 71 308 0.0 0.0 0.00 0.00 0.00 73 1008.6
20260906000104 71 308 0.0 0.0 0.00 0.00 0.00 72 1008.6
20260906000044 71 308 0.0 0.0 0.00 0.00 0.00 71 1008.6
20260906000004 71 308 0.0 0.0 0.00 0.00 0.00 71 1008.6
20260905235910 71 308 0.0 0.0 0.00 0.00 0.00 71 1008.6
20260905235902 71 308 0.0 0.0 0.00 0.00 0.00 71 1008.6
20260905235802 71 308 0.0 0.0 0.00 0.00 0.00 71 1008.6
20260905235704 71 308 0.0 0.0 0.00 0.00 0.00 71 1008.6
20260905235616 72 308 0.0 0.0 0.00 0.00 0.00 70 1008.6
20260905235612 71 308 0.0 0.0 0.00 0.00 0.00 71 1008.6
20260905235529 72 308 0.0 0.0 0.00 0.00 0.00 70 1008.6
20260905235417 72 308 0.0 0.0 0.00 0.00 0.00 70 1008.6
20260905235412 72 308 0.0 0.0 0.00 0.00 0.00 70 1008.6
20260905235403 72 308 0.0 0.0 0.00 0.00 0.00 70 1008.6
20260905235249 72 308 0.0 0.0 0.00 0.00 0.00 69 1008.5
20260905235136 72 308 0.0 0.0 0.00 0.00 0.00 69 1008.5
20260905235029 72 308 0.0 0.0 0.00 0.00 0.00 68 1008.5
20260905235023 72 308 0.0 0.0 0.00 0.00 0.00 68 1008.5
20260905234908 72 308 0.0 0.0 0.00 0.00 0.00 68 1008.5
20260905234859 73 308 0.0 0.0 0.00 0.00 0.00 68 1008.5
20260905234638 73 308 0.0 0.0 0.00 0.00 0.00 67 1008.4
20260905234632 73 308 0.0 0.0 0.00 0.00 0.00 68 1008.5
20260905234623 73 308 0.0 0.0 0.00 0.00 0.00 67 1008.5
20260905234529 73 308 0.0 0.0 0.00 0.00 0.00 68 1008.5
20260905234221 73 308 0.0 0.0 0.00 0.00 0.00 67 1008.4
20260905234108 73 308 0.0 0.0 0.00 0.00 0.00 67 1008.4
20260905234030 73 308 0.0 0.0 0.00 0.00 0.00 68 1008.3
20260905233925 74 308 0.0 0.0 0.00 0.00 0.00 68 1008.3
20260905233920 74 308 0.0 0.0 0.00 0.00 0.00 68 1008.4
20260905233807 74 308 0.0 0.0 0.00 0.00 0.00 67 1008.4
20260905233557 74 308 0.0 0.0 0.00 0.00 0.00 65 1008.3
20260905233529 74 308 0.0 0.0 0.00 0.00 0.00 64 1008.3
20260905233457 74 308 0.0 0.0 0.00 0.00 0.00 64 1008.3
20260905233406 74 308 0.0 0.0 0.00 0.00 0.00 63 1008.3
20260905233356 74 308 0.0 0.0 0.00 0.00 0.00 63 1008.3
20260905233256 74 308 0.0 0.0 0.00 0.00 0.00 62 1008.3
20260905233155 74 308 0.0 0.0 0.00 0.00 0.00 62 1008.2
20260905233055 74 308 0.0 0.0 0.00 0.00 0.00 62 1008.2
20260905233029 74 308 0.0 0.0 0.00 0.00 0.00 61 1008.2
20260905232955 74 308 0.0 0.0 0.00 0.00 0.00 61 1008.2
20260905232905 74 308 0.0 0.0 0.00 0.00 0.00 61 1008.2
20260905232853 74 308 0.0 0.0 0.00 0.00 0.00 61 1008.2
20260905232753 74 308 0.0 0.0 0.00 0.00 0.00 61 1008.2
20260905232714 75 308 0.0 0.0 0.00 0.00 0.00 61 1008.2
20260905232652 75 308 0.0 0.0 0.00 0.00 0.00 61 1008.2
20260905232620 75 308 0.0 0.0 0.00 0.00 0.00 61 1008.2
20260905232615 75 308 0.0 0.0 0.00 0.00 0.00 60 1008.3
20260905232606 75 308 0.0 0.0 0.00 0.00 0.00 61 1008.2
20260905232529 75 308 0.0 0.0 0.00 0.00 0.00 61 1008.2
20260905232306 75 308 0.0 0.0 0.00 0.00 0.00 61 1008.2
20260905232259 75 308 0.0 0.0 0.00 0.00 0.00 61 1008.2
20260905232123 75 308 0.0 0.0 0.00 0.00 0.00 60 1008.1
20260905232050 75 308 0.0 0.0 0.00 0.00 0.00 60 1008.2
20260905232029 75 308 0.0 0.0 0.00 0.00 0.00 60 1008.1
20260905232012 75 308 0.0 0.0 0.00 0.00 0.00 60 1008.1
20260905231849 75 308 0.0 0.0 0.00 0.00 0.00 60 1008.1
20260905231749 75 308 0.0 0.0 0.00 0.00 0.00 60 1008.1
20260905231648 76 308 0.0 0.0 0.00 0.00 0.00 60 1008.2
20260905231548 76 308 0.0 0.0 0.00 0.00 0.00 60 1008.2
20260905231529 76 308 0.0 0.0 0.00 0.00 0.00 60 1008.2
20260905231448 76 308 0.0 0.0 0.00 0.00 0.00 60 1008.3
20260905231402 76 308 0.0 0.0 0.00 0.00 0.00 61 1008.3
20260905231347 76 308 0.0 0.0 0.00 0.00 0.00 61 1008.3
20260905231247 76 308 0.0 0.0 0.00 0.00 0.00 60 1008.3
20260905231147 76 308 0.0 0.0 0.00 0.00 0.00 60 1008.3
20260905231045 76 308 0.0 0.0 0.00 0.00 0.00 60 1008.3
20260905231029 76 308 0.0 0.0 0.00 0.00 0.00 60 1008.2
20260905230959 76 308 0.0 0.0 0.00 0.00 0.00 60 1008.3
20260905230950 76 308 0.0 0.0 0.00 0.00 0.00 60 1008.3
20260905230744 76 308 0.0 0.0 0.00 0.00 0.00 60 1008.3
20260905230644 77 308 0.0 0.0 0.00 0.00 0.00 59 1008.3
20260905230543 77 308 0.0 0.0 0.00 0.00 0.00 59 1008.3
20260905230529 77 308 0.0 0.0 0.00 0.00 0.00 59 1008.1
20260905230443 77 308 0.0 0.0 0.00 0.00 0.00 59 1008.2
20260905230340 77 308 0.0 0.0 0.00 0.00 0.00 58 1008.2
20260905230241 77 308 0.0 0.0 0.00 0.00 0.00 58 1008.2
20260905230154 77 308 0.0 0.0 0.00 0.00 0.00 57 1008.2
20260905230150 77 308 0.0 0.0 0.00 0.00 0.00 57 1008.2
20260905230029 77 308 0.0 0.0 0.00 0.00 0.00 57 1008.1
20260905225940 77 308 0.0 0.0 0.00 0.00 0.00 58 1008.2
20260905225857 77 312 0.0 0.0 0.00 0.00 0.00 58 1008.2
20260905225840 78 312 0.0 0.0 0.00 0.00 0.00 58 1008.2
20260905225813 78 312 0.0 0.0 0.00 0.00 0.00 56 1008.1
20260905225700 78 312 0.0 0.0 0.00 0.00 0.00 57 1008.1
20260905225656 78 312 0.0 0.0 0.00 0.00 0.00 57 1008.2
20260905225530 78 312 0.0 0.0 0.00 0.00 0.00 55 1008.0
20260905225357 78 286 0.0 0.0 0.00 0.00 0.00 57 1008.1
20260905225337 78 286 0.0 0.0 0.00 0.00 0.00 56 1008.1
20260905225237 78 286 0.0 0.0 0.00 0.00 0.00 56 1008.1
20260905225137 78 286 0.0 0.0 0.00 0.00 0.00 56 1008.1
20260905225036 78 286 0.0 0.0 0.00 0.00 0.00 56 1008.2
20260905225029 78 286 0.0 0.0 0.00 0.00 0.00 56 1008.0
20260905224936 78 286 0.0 0.0 0.00 0.00 0.00 56 1008.1
20260905224835 79 286 0.0 0.0 0.00 0.00 0.00 55 1008.1
20260905224734 79 286 0.0 0.0 0.00 0.00 0.00 55 1008.1
20260905224635 79 286 0.0 0.0 0.00 0.00 0.00 55 1008.1
20260905224534 79 286 0.0 0.0 0.00 0.00 0.00 55 1008.2
20260905224529 79 286 0.0 0.0 0.00 0.00 0.00 55 1008.0
20260905224434 79 286 0.0 0.0 0.00 0.00 0.00 55 1008.1
20260905224356 79 286 0.0 0.0 0.00 0.00 0.00 55 1008.1
20260905224332 79 286 0.0 0.0 0.00 0.00 0.00 53 1008.1
20260905224234 79 286 0.0 0.0 0.00 0.00 0.00 54 1008.1
20260905224132 80 286 0.0 0.0 0.00 0.00 0.00 53 1008.1
20260905224031 80 286 0.0 0.0 0.00 0.00 0.00 53 1008.1
20260905224029 80 286 0.0 0.0 0.00 0.00 0.00 53 1008.0
20260905223930 80 286 0.0 0.0 0.00 0.00 0.00 53 1008.1
20260905223842 80 286 0.0 0.0 0.00 0.00 0.00 52 1008.1
20260905223838 80 286 0.0 0.0 0.00 0.00 0.00 52 1008.1
20260905223629 80 286 0.0 0.0 0.00 0.00 0.00 52 1008.1
20260905223530 80 281 0.0 0.0 0.00 0.00 0.00 52 1008.1
20260905223429 80 296 0.0 0.0 0.00 0.00 0.00 52 1008.1
20260905223356 80 296 0.0 0.0 0.00 0.00 0.00 52 1008.1
20260905223329 80 296 0.0 0.0 0.00 0.00 0.00 52 1008.1
20260905223227 80 296 0.0 0.0 0.00 0.00 0.00 51 1008.1
20260905223127 80 296 0.0 0.0 0.00 0.00 0.00 52 1008.2
20260905223029 80 291 0.0 0.0 0.00 0.00 0.00 52 1008.1
20260905223027 80 291 0.0 0.0 0.00 0.00 0.00 52 1008.2
20260905222925 80 291 0.0 0.0 0.00 0.00 0.00 51 1008.2
20260905222853 80 291 0.0 0.0 0.00 0.00 0.00 51 1008.2
20260905222826 80 291 0.0 0.0 0.00 0.00 0.00 51 1008.2
20260905222726 80 291 0.0 0.0 0.00 0.00 0.00 51 1008.2
20260905222623 80 291 0.0 0.0 0.00 0.00 0.00 51 1008.2
20260905222559 80 291 0.0 0.0 0.00 0.00 0.00 51 1008.1
20260905222523 80 291 0.0 0.0 0.00 0.00 0.00 51 1008.2
20260905222503 80 290 0.0 0.0 0.00 0.00 0.00 51 1008.2
20260905222455 80 290 0.0 0.0 0.00 0.00 0.00 51 1008.2
20260905222344 80 281 0.0 0.0 0.00 0.00 0.00 51 1008.1
20260905222340 80 290 0.0 0.0 0.00 0.00 0.00 51 1008.2
20260905222227 80 296 0.0 0.0 0.00 0.00 0.00 50 1008.2
20260905222218 80 281 0.0 0.0 0.00 0.00 0.00 51 1008.2
20260905222029 81 281 0.0 0.0 0.00 0.00 0.00 51 1008.1
20260905221832 80 281 0.0 0.0 0.00 0.00 0.00 51 1008.0
20260905221828 80 281 0.0 0.0 0.00 0.00 0.00 51 1008.1
20260905221619 80 305 0.0 0.0 0.00 0.00 0.00 51 1008.0
20260905221529 81 305 0.0 0.0 0.00 0.00 0.00 50 1007.9
20260905221518 80 305 0.0 0.0 0.00 0.00 0.00 50 1008.0
20260905221418 80 306 0.0 0.0 0.00 0.00 0.00 50 1007.9
20260905221351 80 304 0.0 0.0 0.00 0.00 0.00 50 1007.9
20260905221318 80 269 0.0 0.0 0.00 0.00 0.00 51 1007.9
20260905221310 80 269 0.0 0.0 0.00 0.00 0.00 50 1007.9
20260905221306 80 269 0.0 0.0 0.00 0.00 0.00 51 1007.9
20260905221301 80 269 0.0 0.0 0.00 0.00 0.00 51 1007.9
20260905221030 81 269 0.0 0.0 0.00 0.00 0.00 51 1007.9
20260905220929 80 269 0.0 0.0 0.00 0.00 0.00 50 1007.9
20260905220921 80 269 0.0 0.0 0.00 0.00 0.00 50 1007.9
20260905220713 80 269 0.0 0.0 0.00 0.00 0.00 51 1007.8
20260905220627 80 269 0.0 0.0 0.00 0.00 0.00 51 1007.8
20260905220623 80 269 0.0 0.0 0.00 0.00 0.00 51 1007.8
20260905220529 81 269 0.0 0.0 0.00 0.00 0.00 50 1007.9
20260905220413 80 269 0.0 0.0 0.00 0.00 0.00 50 1007.9
20260905220349 80 269 0.0 0.0 0.00 0.00 0.00 50 1007.9
20260905220313 80 269 0.0 0.0 0.00 0.00 0.00 50 1007.9
20260905220248 81 326 0.0 0.0 0.00 0.00 0.00 50 1007.9
20260905220242 81 269 0.0 0.0 0.00 0.00 0.00 50 1007.9
20260905220129 81 268 0.0 0.0 0.00 0.00 0.00 50 1007.9
20260905220029 81 355 0.0 0.0 0.00 0.00 0.00 50 1007.9
20260905215849 81 342 0.0 0.0 0.00 0.00 0.00 49 1007.9
20260905215823 81 210 0.0 0.0 0.00 0.00 0.00 49 1007.9
20260905215818 81 344 0.0 0.0 0.00 0.00 0.00 50 1007.9
20260905215621 81 331 0.0 0.0 0.00 0.00 0.00 49 1007.9
20260905215617 81 329 0.0 0.0 0.00 0.00 0.00 49 1007.9
20260905215544 81 331 0.0 0.0 0.00 0.00 0.00 49 1007.9
20260905215408 81 259 0.0 0.0 0.00 0.00 0.00 49 1007.9
20260905215342 81 259 0.0 0.0 0.00 0.00 0.00 49 1007.9
20260905215229 81 259 0.0 0.0 0.00 0.00 0.00 49 1007.8
20260905215116 81 259 0.0 0.0 0.00 0.00 0.00 49 1007.8
20260905215029 81 259 0.0 0.0 0.00 0.00 0.00 48 1007.9
20260905214955 81 284 0.0 0.0 0.00 0.00 0.00 49 1007.8
20260905214806 81 284 0.0 0.0 0.00 0.00 0.00 49 1007.9
20260905214705 81 284 0.0 0.0 0.00 0.00 0.00 49 1007.9
20260905214605 81 288 0.0 0.0 0.00 0.00 0.00 49 1007.9
20260905214529 81 288 0.0 0.0 0.00 0.00 0.00 50 1007.9
20260905214505 81 288 0.0 0.0 0.00 0.00 0.00 50 1007.9
20260905214404 81 288 0.0 0.0 0.00 0.00 0.00 50 1007.9
20260905214345 81 288 0.0 0.0 0.00 0.00 0.00 50 1007.9
20260905214304 81 288 0.0 0.0 0.00 0.00 0.00 50 1007.9
20260905214202 81 288 0.0 0.0 0.00 0.00 0.00 50 1007.9
20260905214102 81 288 0.0 0.0 0.00 0.00 0.00 48 1007.9
20260905214029 81 296 0.0 0.0 0.00 0.00 0.00 48 1007.9
20260905214002 81 298 0.0 0.0 0.00 0.00 0.00 48 1007.9
20260905213901 81 298 0.0 0.0 0.00 0.00 0.00 49 1007.8
20260905213843 81 298 0.0 0.0 0.00 0.00 0.00 49 1007.8
20260905213801 81 269 0.0 0.0 0.00 0.00 0.00 51 1007.8
20260905213700 81 269 0.0 0.0 0.00 0.00 0.00 51 1007.8
20260905213614 81 269 0.0 0.0 0.00 0.00 0.00 51 1007.8
20260905213610 81 269 0.0 0.0 0.00 0.00 0.00 51 1007.8
20260905213529 81 269 0.0 0.0 0.00 0.00 0.00 51 1007.8
20260905213400 81 269 0.0 0.0 0.00 0.00 0.00 51 1007.8
20260905213341 81 269 0.0 0.0 0.00 0.00 0.00 51 1007.8
20260905213300 81 269 0.0 0.0 0.00 0.00 0.00 51 1007.8
20260905213159 81 269 0.0 0.0 0.00 0.00 0.00 50 1007.7
20260905213059 81 269 0.0 0.0 0.00 0.00 0.00 50 1007.7
20260905213030 81 269 0.0 0.0 0.00 0.00 0.00 51 1007.8
20260905212959 81 269 0.0 0.0 0.00 0.00 0.00 51 1007.8
20260905212949 81 269 0.0 0.0 0.00 0.00 0.00 51 1007.8
20260905212941 81 269 0.0 0.0 0.00 0.00 0.00 51 1007.8
20260905212830 81 269 0.0 0.0 0.00 0.00 0.00 50 1007.8
20260905212607 81 252 0.0 0.0 0.00 0.00 0.00 48 1007.8
20260905212603 81 269 0.0 0.0 0.00 0.00 0.00 50 1007.8
20260905212554 81 267 0.0 0.0 0.00 0.00 0.00 49 1007.8
20260905212529 81 269 0.0 0.0 0.00 0.00 0.00 49 1007.8
20260905212256 81 252 0.0 0.0 0.00 0.00 0.00 48 1007.8
20260905212156 82 251 0.0 0.0 0.00 0.00 0.00 48 1007.8
20260905212124 82 247 0.0 0.0 0.00 0.00 0.00 48 1007.8
20260905212056 82 237 0.0 0.0 0.00 0.00 0.00 48 1007.8
20260905212029 82 254 0.0 0.0 0.00 0.00 0.00 48 1007.8
20260905212022 82 246 0.0 0.0 0.00 0.00 0.00 47 1007.8
20260905212017 82 260 0.0 0.0 0.00 0.00 0.00 48 1007.8
20260905212008 82 248 0.0 0.0 0.00 0.00 0.00 48 1007.8
20260905211652 82 217 0.0 0.0 0.00 0.00 0.00 47 1007.8
20260905211605 82 300 0.0 0.0 0.00 0.00 0.00 48 1007.8
20260905211601 82 298 0.0 0.0 0.00 0.00 0.00 47 1007.8
20260905211529 82 301 0.0 0.0 0.00 0.00 0.00 48 1007.8
20260905211334 82 268 0.0 0.0 0.00 0.00 0.00 48 1007.8
20260905211250 82 267 0.0 0.0 0.00 0.00 0.00 49 1007.7
20260905211149 82 286 0.0 0.0 0.00 0.00 0.00 48 1007.8
20260905211049 82 281 0.0 0.0 0.00 0.00 0.00 49 1007.7
20260905211029 82 283 0.0 0.0 0.00 0.00 0.00 48 1007.7
20260905210949 82 283 0.0 0.0 0.00 0.00 0.00 48 1007.7
20260905210907 82 275 0.0 0.0 0.00 0.00 0.00 49 1007.8
20260905210855 82 282 0.0 0.0 0.00 0.00 0.00 48 1007.8
20260905210648 81 294 0.0 0.0 0.00 0.00 0.00 49 1007.8
20260905210622 81 273 0.0 0.0 0.00 0.00 0.00 49 1007.8
20260905210547 81 297 0.0 0.0 0.00 0.00 0.00 48 1007.7
20260905210529 81 301 0.0 0.0 0.00 0.00 0.00 48 1007.8
20260905210516 81 274 0.0 0.0 0.00 0.00 0.00 48 1007.8
20260905210511 81 291 0.0 0.0 0.00 0.00 0.00 48 1007.8
20260905210502 81 272 0.0 0.0 0.00 0.00 0.00 49 1007.8
20260905210146 81 288 0.0 0.0 0.00 0.00 0.00 48 1007.8
20260905210046 81 261 0.0 0.0 0.00 0.00 0.00 48 1007.7
20260905210029 81 304 0.0 0.0 0.00 0.00 0.00 48 1007.7
20260905205945 81 302 0.0 0.0 0.00 0.00 0.00 48 1007.7
20260905205845 81 264 0.0 0.0 0.00 0.00 0.00 48 1007.7
20260905205828 81 264 0.0 0.0 0.00 0.00 0.00 50 1007.7
20260905205743 81 254 0.0 0.0 0.00 0.00 0.00 50 1007.7
20260905205643 81 255 0.0 0.0 0.00 0.00 0.00 50 1007.8
20260905205555 81 262 0.0 0.0 0.00 0.00 0.00 50 1007.7
20260905205551 81 262 0.0 0.0 0.00 0.00 0.00 50 1007.7
20260905205529 81 262 0.0 0.0 0.00 0.00 0.00 50 1007.7
20260905205328 81 261 0.0 0.0 0.00 0.00 0.00 50 1007.7
20260905205241 81 261 0.0 0.0 0.00 0.00 0.00 48 1007.7
20260905205141 81 259 0.0 0.0 0.00 0.00 0.00 50 1007.6
20260905205053 81 259 0.0 0.0 0.00 0.00 0.00 50 1007.5
20260905205049 81 259 0.0 0.0 0.00 0.00 0.00 50 1007.6
20260905205030 81 259 0.0 0.0 0.00 0.00 0.00 50 1007.5
20260905204840 81 259 0.0 0.0 0.00 0.00 0.00 51 1007.5
20260905204826 81 259 0.0 0.0 0.00 0.00 0.00 51 1007.5
20260905204807 81 259 0.0 0.0 0.00 0.00 0.00 51 1007.6
20260905204802 81 259 0.0 0.0 0.00 0.00 0.00 48 1007.6
20260905204757 81 259 0.0 0.0 0.00 0.00 0.00 51 1007.6
20260905204529 81 259 0.0 0.0 0.00 0.00 0.00 48 1007.6
20260905204439 81 301 0.0 0.0 0.00 0.00 0.00 47 1007.6
20260905204406 81 300 0.0 0.0 0.00 0.00 0.00 48 1007.6
20260905204358 81 300 0.0 0.0 0.00 0.00 0.00 48 1007.6
20260905204247 81 331 0.0 0.0 0.00 0.00 0.00 47 1007.7
20260905204036 81 308 0.0 0.0 0.00 0.00 0.00 49 1007.7
20260905204029 81 308 0.0 0.0 0.00 0.00 0.00 48 1007.6
20260905203936 81 309 0.0 0.0 0.00 0.00 0.00 49 1007.6
20260905203906 81 317 0.0 0.0 0.00 0.00 0.00 47 1007.7
20260905203902 81 26 0.0 0.0 0.00 0.00 0.00 47 1007.7
20260905203848 81 306 0.0 0.0 0.00 0.00 0.00 48 1007.7
20260905203531 81 320 0.0 0.0 0.00 0.00 0.00 47 1007.7
20260905203445 81 235 0.0 0.0 0.00 0.00 0.00 48 1007.6
20260905203441 81 286 0.0 0.0 0.00 0.00 0.00 48 1007.6
20260905203325 81 234 0.0 0.0 0.00 0.00 0.00 48 1007.6
20260905203230 81 270 0.0 0.0 0.00 0.00 0.00 48 1007.6
20260905203129 81 326 0.0 0.0 0.00 0.00 0.00 50 1007.6
20260905203044 81 294 0.0 0.0 0.00 0.00 0.00 48 1007.7
20260905203029 81 326 0.0 0.0 0.00 0.00 0.00 49 1007.7
20260905202929 81 296 0.0 0.0 0.00 0.00 0.00 48 1007.7
20260905202829 81 302 0.0 0.0 0.00 0.00 0.00 50 1007.7
20260905202823 81 330 0.0 0.0 0.00 0.00 0.00 50 1007.7
20260905202728 81 305 0.0 0.0 0.00 0.00 0.00 51 1007.7
20260905202628 81 305 0.0 0.0 0.00 0.00 0.00 49 1007.8
20260905202539 81 305 0.0 0.0 0.00 0.00 0.00 51 1007.8
20260905202535 81 305 0.0 0.0 0.00 0.00 0.00 49 1007.8
20260905202529 81 305 0.0 0.0 0.00 0.00 0.00 51 1007.8
20260905202320 81 304 0.0 0.0 0.00 0.00 0.00 52 1007.8
20260905202225 81 82 0.0 0.0 0.00 0.00 0.00 51 1007.8
20260905202138 81 46 0.0 0.0 0.00 0.00 0.00 50 1007.8
20260905202133 81 82 0.0 0.0 0.00 0.00 0.00 51 1007.8
20260905202029 81 336 0.0 0.0 0.00 0.00 0.00 50 1007.8
20260905201923 81 336 0.0 0.0 0.00 0.00 0.00 50 1007.8
20260905201827 80 211 0.0 0.0 0.00 0.00 0.00 50 1007.8
20260905201820 80 155 0.0 0.0 0.00 0.00 0.00 50 1007.8
20260905201722 80 153 0.0 0.0 0.00 0.00 0.00 50 1007.8
20260905201622 80 274 0.0 0.0 0.00 0.00 0.00 50 1007.9
20260905201544 80 275 0.0 0.0 0.00 0.00 0.00 51 1007.8
20260905201522 80 275 0.0 0.0 0.00 0.00 0.00 51 1007.9
20260905201439 80 314 0.0 0.0 0.00 0.00 0.00 50 1007.9
20260905201435 80 306 0.0 0.0 0.00 0.00 0.00 51 1007.9
20260905201322 80 314 0.0 0.0 0.00 0.00 0.00 50 1007.9
20260905201220 81 290 0.0 0.0 0.00 0.00 0.00 51 1007.9
20260905201139 81 290 0.0 0.0 0.00 0.00 0.00 50 1008.0
20260905201030 81 290 0.0 0.0 0.00 0.00 0.00 53 1007.9
20260905201026 81 290 0.0 0.0 0.00 0.00 0.00 53 1008.0
20260905200816 81 289 0.0 0.0 0.00 0.00 0.00 52 1007.9
20260905200729 81 288 0.0 0.0 0.00 0.00 0.00 50 1008.0
20260905200724 81 288 0.0 0.0 0.00 0.00 0.00 51 1007.9
20260905200543 81 329 0.0 0.0 0.00 0.00 0.00 50 1008.0
20260905200529 81 322 0.0 0.0 0.00 0.00 0.00 52 1007.9
20260905200515 81 294 0.0 0.0 0.00 0.00 0.00 52 1008.0
20260905200430 81 322 0.0 0.0 0.00 0.00 0.00 51 1007.9
20260905200315 81 323 0.0 0.0 0.00 0.00 0.00 50 1008.0
20260905200215 81 327 0.0 0.0 0.00 0.00 0.00 49 1007.9
20260905200113 81 310 0.0 0.0 0.00 0.00 0.00 50 1007.9
20260905200058 81 275 0.0 0.0 0.00 0.00 0.00 51 1007.9
20260905200054 81 279 0.0 0.0 0.00 0.00 0.00 51 1007.9
20260905200050 81 321 0.0 0.0 0.00 0.00 0.00 53 1007.9
20260905200044 81 269 0.0 0.0 0.00 0.00 0.00 50 1007.9
20260905195821 81 269 0.0 0.0 0.00 0.00 0.00 51 1007.9
20260905195624 81 49 0.0 0.0 0.00 0.00 0.00 52 1007.9
20260905195620 81 331 0.0 0.0 0.00 0.00 0.00 51 1007.9
20260905195529 81 49 0.0 0.0 0.00 0.00 0.00 52 1007.9
20260905195410 81 49 0.0 0.0 0.00 0.00 0.00 53 1007.9
20260905195328 81 282 0.0 0.0 0.00 0.00 0.00 51 1007.9
20260905195318 81 260 0.0 0.0 0.00 0.00 0.00 53 1008.0
20260905195109 80 311 0.0 0.0 0.00 0.00 0.00 51 1007.9
20260905195029 80 315 0.0 0.0 0.00 0.00 0.00 52 1007.9
20260905195009 80 315 0.0 0.0 0.00 0.00 0.00 52 1007.9
20260905194908 80 315 0.0 0.0 0.00 0.00 0.00 53 1007.9
20260905194836 80 301 0.0 0.0 0.00 0.00 0.00 55 1007.8
20260905194830 80 308 0.0 0.0 0.00 0.00 0.00 55 1007.8
20260905194717 80 304 0.0 0.0 0.00 0.00 0.00 55 1007.8
20260905194529 80 238 0.0 0.0 0.00 0.00 0.00 55 1007.8
20260905194508 80 243 0.0 0.0 0.00 0.00 0.00 55 1007.8
20260905194407 80 295 0.0 0.0 0.00 0.00 0.00 56 1007.8
20260905194315 79 272 0.0 0.0 0.00 0.00 0.00 54 1007.8
20260905194305 79 273 0.0 0.0 0.00 0.00 0.00 54 1007.8
20260905194204 79 273 0.0 0.0 0.00 0.00 0.00 54 1007.9
20260905194103 79 299 0.0 0.0 0.00 0.00 0.00 55 1007.9
20260905194039 79 303 0.0 0.0 0.00 0.00 0.00 54 1008.0
20260905194029 79 304 0.0 0.0 0.00 0.00 0.00 54 1007.8
20260905194004 79 304 0.0 0.0 0.00 0.00 0.00 54 1007.9
20260905193924 79 304 0.0 0.0 0.00 0.00 0.00 54 1008.0
20260905193803 79 304 0.0 0.0 0.00 0.00 0.00 54 1008.0
20260905193702 79 309 0.0 0.0 0.00 0.00 0.00 56 1008.0
20260905193601 79 314 0.0 0.0 0.00 0.00 0.00 55 1008.1
20260905193529 79 313 0.0 0.0 0.00 0.00 0.00 53 1007.9
20260905193501 79 313 0.0 0.0 0.00 0.00 0.00 53 1008.0
20260905193401 79 320 0.0 0.0 0.00 0.00 0.00 54 1008.1
20260905193315 79 298 0.0 0.0 0.00 0.00 0.00 55 1008.1
20260905193301 79 297 0.0 0.0 0.00 0.00 0.00 55 1008.1
20260905193201 79 232 0.0 0.0 0.00 0.00 0.00 55 1008.1
20260905193100 79 232 0.0 0.0 0.00 0.00 0.00 54 1008.1
20260905193044 79 294 0.0 0.0 0.00 0.00 0.00 55 1008.0
20260905193037 80 296 0.0 0.0 0.00 0.00 0.00 52 1008.1
20260905193000 79 294 0.0 0.0 0.00 0.00 0.00 55 1008.1
20260905192924 79 294 0.0 0.0 0.00 0.00 0.00 54 1008.1
20260905192759 80 296 0.0 0.0 0.00 0.00 0.00 52 1008.0
20260905192659 80 347 0.0 0.0 0.00 0.00 0.00 56 1008.1
20260905192558 80 348 0.0 0.0 0.00 0.00 0.00 55 1008.0
20260905192529 80 348 0.0 0.0 0.00 0.00 0.00 54 1008.1
20260905192457 80 348 0.0 0.0 0.00 0.00 0.00 54 1008.1
20260905192358 80 331 0.0 0.0 0.00 0.00 0.00 55 1008.1
20260905192317 80 310 0.0 0.0 0.00 0.00 0.00 54 1008.1
20260905192311 80 278 0.0 0.0 0.00 0.00 0.00 56 1008.1
20260905192307 80 310 0.0 0.0 0.00 0.00 0.00 54 1008.1
20260905192057 80 275 0.0 0.0 0.00 0.00 0.00 54 1008.1
20260905192044 80 275 0.0 0.0 0.00 0.00 0.00 57 1008.1
20260905191956 80 275 0.0 0.0 0.00 0.00 0.00 57 1008.1
20260905191937 80 285 0.0 0.0 0.00 0.00 0.00 56 1008.1
20260905191932 80 285 0.0 0.0 0.00 0.00 0.00 57 1008.1
20260905191923 80 285 0.0 0.0 0.00 0.00 0.00 56 1008.1
20260905191704 80 285 0.0 0.0 0.00 0.00 0.00 54 1008.1
20260905191529 80 306 0.0 0.0 0.00 0.00 0.00 57 1008.0
20260905191455 80 306 0.0 0.0 0.00 0.00 0.00 57 1008.0
20260905191354 80 306 0.0 0.0 0.00 0.00 0.00 54 1008.1
20260905191311 80 301 0.0 0.0 0.00 0.00 0.00 56 1008.1
20260905191254 80 300 0.0 0.0 0.00 0.00 0.00 56 1008.1
20260905191153 80 24 0.0 0.0 0.00 0.00 0.00 55 1008.1
20260905191105 80 288 0.0 0.0 0.00 0.00 0.00 54 1008.1
20260905191101 80 345 0.0 0.0 0.00 0.00 0.00 55 1008.1
20260905191029 80 288 0.0 0.0 0.00 0.00 0.00 55 1008.1
20260905190851 81 288 0.0 0.0 0.00 0.00 0.00 55 1008.0
20260905190809 81 288 0.0 0.0 0.00 0.00 0.00 54 1008.0
20260905190751 81 288 0.0 0.0 0.00 0.00 0.00 54 1008.1
20260905190650 81 288 0.0 0.0 0.00 0.00 0.00 54 1008.1
20260905190550 81 288 0.0 0.0 0.00 0.00 0.00 53 1008.0
20260905190535 81 288 0.0 0.0 0.00 0.00 0.00 54 1008.0
20260905190529 81 287 0.0 0.0 0.00 0.00 0.00 53 1008.1
20260905190450 81 287 0.0 0.0 0.00 0.00 0.00 54 1008.1
20260905190418 81 288 0.0 0.0 0.00 0.00 0.00 54 1008.0
20260905190249 81 288 0.0 0.0 0.00 0.00 0.00 54 1008.0
20260905190149 81 288 0.0 0.0 0.00 0.00 0.00 52 1008.0
20260905190048 81 288 0.0 0.0 0.00 0.00 0.00 51 1007.9
20260905190030 81 360 0.0 0.0 0.00 0.00 0.00 52 1007.9
20260905185947 81 288 0.0 0.0 0.00 0.00 0.00 52 1007.9
20260905185847 81 11 0.0 0.0 0.00 0.00 0.00 53 1007.9
20260905185809 81 13 0.0 0.0 0.00 0.00 0.00 53 1007.9
20260905185746 81 13 0.0 0.0 0.00 0.00 0.00 53 1007.9
20260905185659 81 295 0.0 0.0 0.00 0.00 0.00 52 1008.0
20260905185655 81 13 0.0 0.0 0.00 0.00 0.00 53 1007.9
20260905185559 81 295 0.0 0.0 0.00 0.00 0.00 53 1008.0
20260905185458 81 294 0.0 0.0 0.00 0.00 0.00 54 1008.0
20260905185454 81 294 0.0 0.0 0.00 0.00 0.00 53 1008.0
20260905185306 81 297 0.0 0.0 0.00 0.00 0.00 54 1008.0
20260905185244 81 297 0.0 0.0 0.00 0.00 0.00 53 1008.0
20260905185143 81 318 0.0 0.0 0.00 0.00 0.00 54 1008.0
20260905185042 81 319 0.0 0.0 0.00 0.00 0.00 54 1008.0
20260905185029 81 319 0.0 0.0 0.00 0.00 0.00 53 1008.0
20260905184942 81 319 0.0 0.0 0.00 0.00 0.00 53 1008.0
20260905184842 81 319 0.0 0.0 0.00 0.00 0.00 53 1008.1
20260905184805 81 337 0.0 0.0 0.00 0.00 0.00 51 1008.1
20260905184740 81 335 0.0 0.0 0.00 0.00 0.00 53 1008.1
20260905184707 81 312 0.0 0.0 0.00 0.00 0.00 53 1008.1
20260905184701 81 271 0.0 0.0 0.00 0.00 0.00 53 1008.1
20260905184548 81 250 0.0 0.0 0.00 0.00 0.00 52 1008.1
20260905184529 81 12 0.0 0.0 0.00 0.00 0.00 53 1008.1
20260905184414 81 296 0.0 0.0 0.00 0.00 0.00 52 1008.1
20260905184239 81 312 0.0 0.0 0.00 0.00 0.00 53 1008.2
20260905184137 81 19 0.0 0.0 0.00 0.00 0.00 54 1008.1
20260905184050 81 296 0.0 0.0 0.00 0.00 0.00 53 1008.2
20260905184046 81 306 0.0 0.0 0.00 0.00 0.00 54 1008.1
20260905184029 81 296 0.0 0.0 0.00 0.00 0.00 53 1008.2
20260905183836 81 299 0.0 0.0 0.00 0.00 0.00 54 1008.2
20260905183806 81 262 0.0 0.0 0.00 0.00 0.00 55 1008.2
20260905183736 81 260 0.0 0.0 0.00 0.00 0.00 55 1008.2
20260905183634 81 261 0.0 0.0 0.00 0.00 0.00 55 1008.2
20260905183544 81 261 0.0 0.0 0.00 0.00 0.00 56 1008.2
20260905183535 81 261 0.0 0.0 0.00 0.00 0.00 56 1008.2
20260905183507 81 261 0.0 0.0 0.00 0.00 0.00 55 1008.2
20260905183503 81 261 0.0 0.0 0.00 0.00 0.00 55 1008.2
20260905183457 81 261 0.0 0.0 0.00 0.00 0.00 56 1008.2
20260905183340 81 261 0.0 0.0 0.00 0.00 0.00 55 1008.2
20260905183133 81 261 0.0 0.0 0.00 0.00 0.00 53 1008.2
20260905183100 81 236 0.0 0.0 0.00 0.00 0.00 52 1008.1
20260905183056 81 273 0.0 0.0 0.00 0.00 0.00 52 1008.0
20260905183050 81 261 0.0 0.0 0.00 0.00 0.00 53 1008.1
20260905183029 81 261 0.0 0.0 0.00 0.00 0.00 53 1008.1
20260905182803 81 273 0.0 0.0 0.00 0.00 0.00 53 1008.0
20260905182731 81 262 0.0 0.0 0.00 0.00 0.00 53 1008.0
20260905182644 81 261 0.0 0.0 0.00 0.00 0.00 52 1008.0
20260905182640 81 262 0.0 0.0 0.00 0.00 0.00 53 1008.0
20260905182530 81 261 0.0 0.0 0.00 0.00 0.00 52 1008.1
20260905182441 81 265 0.0 0.0 0.00 0.00 0.00 53 1008.1
20260905182432 81 271 0.0 0.0 0.00 0.00 0.00 53 1008.1
20260905182321 81 288 0.0 0.0 0.00 0.00 0.00 52 1008.0
20260905182315 81 265 0.0 0.0 0.00 0.00 0.00 53 1008.1
20260905182309 81 265 0.0 0.0 0.00 0.00 0.00 52 1008.1
20260905182155 81 266 0.0 0.0 0.00 0.00 0.00 51 1008.1
20260905182029 81 301 0.0 0.0 0.00 0.00 0.00 51 1008.0
20260905181803 81 302 0.0 0.0 0.00 0.00 0.00 52 1008.0
20260905181727 81 302 0.0 0.0 0.00 0.00 0.00 52 1008.0
20260905181627 81 259 0.0 0.0 0.00 0.00 0.00 53 1008.0
20260905181529 81 261 0.0 0.0 0.00 0.00 0.00 51 1008.0
20260905181527 81 261 0.0 0.0 0.00 0.00 0.00 52 1008.0
20260905181427 81 261 0.0 0.0 0.00 0.00 0.00 51 1008.0
20260905181326 81 299 0.0 0.0 0.00 0.00 0.00 53 1008.0
20260905181303 81 232 0.0 0.0 0.00 0.00 0.00 53 1008.0
20260905181226 81 239 0.0 0.0 0.00 0.00 0.00 52 1008.0
20260905181125 81 229 0.0 0.0 0.00 0.00 0.00 52 1008.0
20260905181044 81 243 0.0 0.0 0.00 0.00 0.00 51 1008.1
20260905181024 81 272 0.0 0.0 0.00 0.00 0.00 51 1008.0
20260905181003 81 257 0.0 0.0 0.00 0.00 0.00 51 1008.1
20260905180851 81 283 0.0 0.0 0.00 0.00 0.00 54 1008.0
20260905180845 81 331 0.0 0.0 0.00 0.00 0.00 54 1008.0
20260905180837 81 266 0.0 0.0 0.00 0.00 0.00 54 1008.0
20260905180530 81 283 0.0 0.0 0.00 0.00 0.00 53 1008.0
20260905180526 81 306 0.0 0.0 0.00 0.00 0.00 53 1008.0
20260905180521 81 283 0.0 0.0 0.00 0.00 0.00 52 1008.0
20260905180421 81 326 0.0 0.0 0.00 0.00 0.00 53 1008.0
20260905180409 81 326 0.0 0.0 0.00 0.00 0.00 53 1008.1
20260905180220 81 264 0.0 0.0 0.00 0.00 0.00 53 1008.0
20260905180120 82 263 0.0 0.0 0.00 0.00 0.00 52 1008.1
20260905180030 82 275 0.0 0.0 0.00 0.00 0.00 51 1008.0
20260905180019 82 275 0.0 0.0 0.00 0.00 0.00 51 1008.0
20260905175918 82 263 0.0 0.0 0.00 0.00 0.00 50 1007.9
20260905175816 82 261 0.0 0.0 0.00 0.00 0.00 53 1008.0
20260905175800 82 261 0.0 0.0 0.00 0.00 0.00 50 1008.0
20260905175729 82 263 0.0 0.0 0.00 0.00 0.00 52 1007.9
20260905175725 82 261 0.0 0.0 0.00 0.00 0.00 52 1008.0
20260905175529 82 262 0.0 0.0 0.00 0.00 0.00 53 1008.0
20260905175516 82 263 0.0 0.0 0.00 0.00 0.00 53 1008.1
20260905175416 82 262 0.0 0.0 0.00 0.00 0.00 53 1008.0
20260905175316 82 266 0.0 0.0 0.00 0.00 0.00 53 1008.1
20260905175259 82 266 0.0 0.0 0.00 0.00 0.00 52 1008.2
20260905175216 82 266 0.0 0.0 0.00 0.00 0.00 50 1008.1
20260905175116 82 266 0.0 0.0 0.00 0.00 0.00 50 1008.2
20260905175034 82 259 0.0 0.0 0.00 0.00 0.00 50 1008.2
20260905175030 82 348 0.0 0.0 0.00 0.00 0.00 51 1008.3
20260905175024 82 265 0.0 0.0 0.00 0.00 0.00 50 1008.3
20260905174905 82 259 0.0 0.0 0.00 0.00 0.00 52 1008.2
20260905174714 82 262 0.0 0.0 0.00 0.00 0.00 50 1008.2
20260905174614 82 284 0.0 0.0 0.00 0.00 0.00 50 1008.2
20260905174544 82 311 0.0 0.0 0.00 0.00 0.00 51 1008.2
20260905174513 82 336 0.0 0.0 0.00 0.00 0.00 51 1008.3
20260905174413 82 285 0.0 0.0 0.00 0.00 0.00 50 1008.3
20260905174313 82 286 0.0 0.0 0.00 0.00 0.00 51 1008.3
20260905174256 82 286 0.0 0.0 0.00 0.00 0.00 51 1008.3
20260905174211 82 288 0.0 0.0 0.00 0.00 0.00 51 1008.3
20260905174111 82 280 0.0 0.0 0.00 0.00 0.00 49 1008.3
20260905174029 82 319 0.0 0.0 0.00 0.00 0.00 51 1008.2
20260905174011 82 282 0.0 0.0 0.00 0.00 0.00 51 1008.3
20260905173910 82 267 0.0 0.0 0.00 0.00 0.00 49 1008.2
20260905173810 82 261 0.0 0.0 0.00 0.00 0.00 51 1008.1
20260905173756 82 336 0.0 0.0 0.00 0.00 0.00 51 1008.2
20260905173708 82 340 0.0 0.0 0.00 0.00 0.00 52 1008.2
20260905173626 82 238 0.0 0.0 0.00 0.00 0.00 52 1008.2
20260905173529 82 240 0.0 0.0 0.00 0.00 0.00 51 1008.3
20260905173507 82 240 0.0 0.0 0.00 0.00 0.00 51 1008.2
20260905173409 82 239 0.0 0.0 0.00 0.00 0.00 51 1008.3
20260905173400 82 236 0.0 0.0 0.00 0.00 0.00 51 1008.3
20260905173221 81 284 0.0 0.0 0.00 0.00 0.00 52 1008.3
20260905173216 81 237 0.0 0.0 0.00 0.00 0.00 52 1008.4
20260905173044 81 286 0.0 0.0 0.00 0.00 0.00 53 1008.3
20260905173006 81 288 0.0 0.0 0.00 0.00 0.00 51 1008.3
20260905172906 81 252 0.0 0.0 0.00 0.00 0.00 54 1008.3
20260905172805 81 269 0.0 0.0 0.00 0.00 0.00 54 1008.4
20260905172753 81 269 0.0 0.0 0.00 0.00 0.00 54 1008.4
20260905172705 81 284 0.0 0.0 0.00 0.00 0.00 52 1008.4
20260905172626 81 283 0.0 0.0 0.00 0.00 0.00 51 1008.4
20260905172530 81 261 0.0 0.0 0.00 0.00 0.00 54 1008.3
20260905172513 81 289 0.0 0.0 0.00 0.00 0.00 54 1008.3
20260905172305 81 275 0.0 0.0 0.00 0.00 0.00 51 1008.3
20260905172252 81 275 0.0 0.0 0.00 0.00 0.00 51 1008.3
20260905172203 81 316 0.0 0.0 0.00 0.00 0.00 51 1008.3
20260905172101 82 290 0.0 0.0 0.00 0.00 0.00 52 1008.3
20260905172029 82 268 0.0 0.0 0.00 0.00 0.00 52 1008.3
20260905172001 82 268 0.0 0.0 0.00 0.00 0.00 52 1008.3
20260905171901 81 246 0.0 0.0 0.00 0.00 0.00 53 1008.4
20260905171801 81 317 0.0 0.0 0.00 0.00 0.00 55 1008.4
20260905171752 81 329 0.0 0.0 0.00 0.00 0.00 55 1008.4
20260905171714 81 255 0.0 0.0 0.00 0.00 0.00 53 1008.4
20260905171709 81 255 0.0 0.0 0.00 0.00 0.00 53 1008.3
20260905171530 81 294 0.0 0.0 0.00 0.00 0.00 52 1008.4
20260905171459 81 294 0.0 0.0 0.00 0.00 0.00 52 1008.4
20260905171359 81 279 0.0 0.0 0.00 0.00 0.00 51 1008.3
20260905171251 81 284 0.0 0.0 0.00 0.00 0.00 51 1008.3
20260905171212 81 283 0.0 0.0 0.00 0.00 0.00 50 1008.3
20260905171207 81 281 0.0 0.0 0.00 0.00 0.00 50 1008.4
20260905171029 81 272 0.0 0.0 0.00 0.00 0.00 52 1008.4
20260905170958 81 273 0.0 0.0 0.00 0.00 0.00 52 1008.4
20260905170857 81 273 0.0 0.0 0.00 0.00 0.00 53 1008.4
20260905170751 81 273 0.0 0.0 0.00 0.00 0.00 53 1008.4
20260905170656 81 255 0.0 0.0 0.00 0.00 0.00 52 1008.5
20260905170555 81 274 0.0 0.0 0.00 0.00 0.00 51 1008.4
20260905170540 81 330 0.0 0.0 0.00 0.00 0.00 54 1008.4
20260905170534 81 323 0.0 0.0 0.00 0.00 0.00 54 1008.4
20260905170530 80 257 0.0 0.0 0.00 0.00 0.00 54 1008.4
20260905170525 81 301 0.0 0.0 0.00 0.00 0.00 51 1008.4
20260905170516 81 269 0.0 0.0 0.00 0.00 0.00 52 1008.4
20260905170052 80 257 0.0 0.0 0.00 0.00 0.00 53 1008.4
20260905170044 81 257 0.0 0.0 0.00 0.00 0.00 53 1008.3
20260905165949 80 257 0.0 0.0 0.00 0.00 0.00 53 1008.3
20260905165849 80 257 0.0 0.0 0.00 0.00 0.00 52 1008.3
20260905165750 81 260 0.0 0.0 0.00 0.00 0.00 52 1008.4
20260905165648 81 0 0.0 0.0 0.00 0.00 0.00 52 1008.4
20260905165548 81 329 0.0 0.0 0.00 0.00 0.00 53 1008.4
20260905165529 81 296 0.0 0.0 0.00 0.00 0.00 57 1008.4
20260905165514 80 277 0.0 0.0 0.00 0.00 0.00 56 1008.4
20260905165447 81 302 0.0 0.0 0.00 0.00 0.00 57 1008.4
20260905165401 81 278 0.0 0.0 0.00 0.00 0.00 57 1008.3
20260905165246 80 277 0.0 0.0 0.00 0.00 0.00 56 1008.4
20260905165200 80 309 0.0 0.0 0.00 0.00 0.00 54 1008.4
20260905165155 80 277 0.0 0.0 0.00 0.00 0.00 56 1008.3
20260905165030 80 266 0.0 0.0 0.00 0.00 0.00 54 1008.4
20260905165013 80 9 0.0 0.0 0.00 0.00 0.00 55 1008.4
20260905164945 80 336 0.0 0.0 0.00 0.00 0.00 54 1008.4
20260905164859 80 350 0.0 0.0 0.00 0.00 0.00 56 1008.5
20260905164744 80 9 0.0 0.0 0.00 0.00 0.00 55 1008.4
20260905164644 80 9 0.0 0.0 0.00 0.00 0.00 52 1008.4
20260905164557 80 303 0.0 0.0 0.00 0.00 0.00 55 1008.6
20260905164552 80 290 0.0 0.0 0.00 0.00 0.00 54 1008.5
20260905164529 80 303 0.0 0.0 0.00 0.00 0.00 55 1008.6
20260905164357 80 324 0.0 0.0 0.00 0.00 0.00 55 1008.6
20260905164348 80 324 0.0 0.0 0.00 0.00 0.00 54 1008.6
20260905164142 80 324 0.0 0.0 0.00 0.00 0.00 54 1008.6
20260905164040 80 70 0.0 0.0 0.00 0.00 0.00 55 1008.6
20260905164029 80 70 0.0 0.0 0.00 0.00 0.00 54 1008.7
20260905163939 80 70 0.0 0.0 0.00 0.00 0.00 54 1008.7
20260905163838 79 254 0.0 0.0 0.00 0.00 0.00 55 1008.7
20260905163738 79 252 0.0 0.0 0.00 0.00 0.00 55 1008.7
20260905163637 79 252 0.0 0.0 0.00 0.00 0.00 54 1008.7
20260905163537 79 252 0.0 0.0 0.00 0.00 0.00 55 1008.7
20260905163530 79 251 0.0 0.0 0.00 0.00 0.00 56 1008.7
20260905163437 79 286 0.0 0.0 0.00 0.00 0.00 56 1008.7
20260905163337 79 291 0.0 0.0 0.00 0.00 0.00 56 1008.7
20260905163236 79 224 0.0 0.0 0.00 0.00 0.00 55 1008.7
20260905163135 79 277 0.0 0.0 0.00 0.00 0.00 55 1008.6
20260905163055 79 278 0.0 0.0 0.00 0.00 0.00 54 1008.6
20260905163029 79 277 0.0 0.0 0.00 0.00 0.00 53 1008.7
20260905162941 79 288 0.0 0.0 0.00 0.00 0.00 53 1008.7
20260905162741 80 294 0.0 0.0 0.00 0.00 0.00 52 1008.6
20260905162732 80 23 0.0 0.0 0.00 0.00 0.00 52 1008.6
20260905162645 80 323 0.0 0.0 0.00 0.00 0.00 54 1008.7
20260905162640 80 24 0.0 0.0 0.00 0.00 0.00 53 1008.7
20260905162530 80 309 0.0 0.0 0.00 0.00 0.00 52 1008.7
20260905162431 80 271 0.0 0.0 0.00 0.00 0.00 52 1008.7
20260905162330 80 300 0.0 0.0 0.00 0.00 0.00 53 1008.7
20260905162239 80 325 0.0 0.0 0.00 0.00 0.00 53 1008.8
20260905162230 80 269 0.0 0.0 0.00 0.00 0.00 52 1008.8
20260905162142 80 300 0.0 0.0 0.00 0.00 0.00 52 1008.9
20260905162137 80 319 0.0 0.0 0.00 0.00 0.00 52 1008.9
20260905162029 80 312 0.0 0.0 0.00 0.00 0.00 53 1008.8
20260905161928 80 331 0.0 0.0 0.00 0.00 0.00 53 1008.8
20260905161827 80 34 0.0 0.0 0.00 0.00 0.00 53 1008.8
20260905161810 80 153 0.0 0.0 0.00 0.00 0.00 54 1008.9
20260905161805 80 355 0.0 0.0 0.00 0.00 0.00 53 1008.8
20260905161758 80 355 0.0 0.0 0.00 0.00 0.00 55 1008.8
20260905161535 80 11 0.0 0.0 0.00 0.00 0.00 54 1008.7
20260905161529 80 17 0.0 0.0 0.00 0.00 0.00 54 1008.7
20260905161325 80 123 0.0 0.0 0.00 0.00 0.00 55 1008.7
20260905161245 80 61 0.0 0.0 0.00 0.00 0.00 54 1008.7
20260905161241 80 86 0.0 0.0 0.00 0.00 0.00 55 1008.7
20260905161234 80 36 0.0 0.0 0.00 0.00 0.00 55 1008.7
20260905161107 80 315 0.0 0.0 0.00 0.00 0.00 57 1006.5
20260905161101 80 279 0.0 0.0 0.00 0.00 0.00 54 1008.7
20260905161029 80 278 0.0 0.0 0.00 0.00 0.00 54 1006.5
20260905160947 80 296 0.0 0.0 0.00 0.00 0.00 55 1006.5
20260905160830 80 67 0.0 0.0 0.00 0.00 0.00 57 1006.5
20260905160623 80 317 0.0 0.0 0.00 0.00 0.00 56 1006.2
20260905160559 80 360 0.0 0.0 0.00 0.00 0.00 56 1005.7
20260905160523 80 286 0.0 0.0 0.00 0.00 0.00 56 1005.7
20260905160435 80 283 0.0 0.0 0.00 0.00 0.00 56 1005.7
20260905160430 80 0 0.0 0.0 0.00 0.00 0.00 54 1005.7
20260905160238 79 236 0.0 0.0 0.00 0.00 0.00 55 1005.8
20260905160221 79 281 0.0 0.0 0.00 0.00 0.00 55 1005.8
20260905160120 79 342 0.0 0.0 0.00 0.00 0.00 56 1005.8
20260905160046 79 284 0.0 0.0 0.00 0.00 0.00 57 1005.6
20260905160044 79 281 0.0 0.0 0.00 0.00 0.00 58 1005.6
20260905160041 79 286 0.0 0.0 0.00 0.00 0.00 56 1005.5
20260905160036 79 283 0.0 0.0 0.00 0.00 0.00 58 1005.6
20260905155740 79 286 0.0 0.0 0.00 0.00 0.00 54 1005.2
20260905155627 79 333 0.0 0.0 0.00 0.00 0.00 55 1005.2
20260905155529 79 315 0.0 0.0 0.00 0.00 0.00 57 1005.2
20260905155417 79 310 0.0 0.0 0.00 0.00 0.00 59 1005.1
20260905155344 79 315 0.0 0.0 0.00 0.00 0.00 57 1005.0
20260905155336 79 321 0.0 0.0 0.00 0.00 0.00 57 1005.1
20260905155225 79 321 0.0 0.0 0.00 0.00 0.00 57 1005.1
20260905155029 79 349 0.0 0.0 0.00 0.00 0.00 57 1004.9
20260905155015 79 313 0.0 0.0 0.00 0.00 0.00 55 1004.8
20260905154957 79 275 0.0 0.0 0.00 0.00 0.00 56 1004.7
20260905154915 79 327 0.0 0.0 0.00 0.00 0.00 56 1004.8
20260905154844 79 327 0.0 0.0 0.00 0.00 0.00 56 1004.7
20260905154730 79 19 0.0 0.0 0.00 0.00 0.00 55 1004.6
20260905154725 79 290 0.0 0.0 0.00 0.00 0.00 56 1004.7
20260905154559 79 326 0.0 0.0 0.00 0.00 0.00 55 1004.7
20260905154514 79 355 0.0 0.0 0.00 0.00 0.00 55 1004.7
20260905154428 79 19 0.0 0.0 0.00 0.00 0.00 57 1004.4
20260905154422 79 283 0.0 0.0 0.00 0.00 0.00 56 1004.6
20260905154213 79 22 0.0 0.0 0.00 0.00 0.00 57 1004.2
20260905154113 79 24 0.0 0.0 0.00 0.00 0.00 59 1004.2
20260905154029 79 342 0.0 0.0 0.00 0.00 0.00 58 1004.3
20260905154026 79 333 0.0 0.0 0.00 0.00 0.00 57 1004.2
20260905154021 79 342 0.0 0.0 0.00 0.00 0.00 58 1004.2
20260905153812 79 336 0.0 0.0 0.00 0.00 0.00 57 1004.0
20260905153731 79 277 0.0 0.0 0.00 0.00 0.00 57 1003.8
20260905153712 79 308 0.0 0.0 0.00 0.00 0.00 58 1003.8
20260905153610 79 321 0.0 0.0 0.00 0.00 0.00 58 1004.0
20260905153529 79 321 0.0 0.0 0.00 0.00 0.00 58 1003.8
20260905153509 79 321 0.0 0.0 0.00 0.00 0.00 58 1004.0
20260905153409 79 343 0.0 0.0 0.00 0.00 0.00 56 1003.7
20260905153307 79 313 0.0 0.0 0.00 0.00 0.00 56 1003.5
20260905153230 79 268 0.0 0.0 0.00 0.00 0.00 56 1003.8
20260905153208 79 267 0.0 0.0 0.00 0.00 0.00 56 1003.8
20260905153106 79 290 0.0 0.0 0.00 0.00 0.00 57 1003.6
20260905153029 79 343 0.0 0.0 0.00 0.00 0.00 56 1005.3
20260905153007 79 294 0.0 0.0 0.00 0.00 0.00 56 1003.6
20260905152906 79 310 0.0 0.0 0.00 0.00 0.00 56 1005.2
20260905152808 79 259 0.0 0.0 0.00 0.00 0.00 57 1005.2
20260905152727 79 5 0.0 0.0 0.00 0.00 0.00 56 1004.5
20260905152706 79 328 0.0 0.0 0.00 0.00 0.00 56 1004.5
20260905152620 79 290 0.0 0.0 0.00 0.00 0.00 57 1004.2
20260905152614 79 274 0.0 0.0 0.00 0.00 0.00 57 1004.5
20260905152530 79 290 0.0 0.0 0.00 0.00 0.00 57 1004.0
20260905152406 79 325 0.0 0.0 0.00 0.00 0.00 56 1003.9
20260905152306 79 283 0.0 0.0 0.00 0.00 0.00 56 1003.9
20260905152227 79 256 0.0 0.0 0.00 0.00 0.00 58 1003.9
20260905152219 79 273 0.0 0.0 0.00 0.00 0.00 58 1003.2
20260905152213 79 324 0.0 0.0 0.00 0.00 0.00 58 1003.7
20260905152030 79 340 0.0 0.0 0.00 0.00 0.00 57 1003.1
20260905152004 79 340 0.0 0.0 0.00 0.00 0.00 57 1003.0
20260905151903 79 26 0.0 0.0 0.00 0.00 0.00 56 1008.9
20260905151803 79 294 0.0 0.0 0.00 0.00 0.00 56 1008.9
20260905151727 79 296 0.0 0.0 0.00 0.00 0.00 58 1008.9
20260905151702 79 271 0.0 0.0 0.00 0.00 0.00 58 1008.7
20260905151603 79 240 0.0 0.0 0.00 0.00 0.00 58 1003.7
20260905151559 79 292 0.0 0.0 0.00 0.00 0.00 58 1003.8
20260905151517 79 274 0.0 0.0 0.00 0.00 0.00 58 1003.7
20260905151511 79 292 0.0 0.0 0.00 0.00 0.00 58 1003.7
20260905151303 79 317 0.0 0.0 0.00 0.00 0.00 57 1008.5
20260905151225 79 249 0.0 0.0 0.00 0.00 0.00 57 1008.5
20260905151201 79 318 0.0 0.0 0.00 0.00 0.00 57 1008.5
20260905151101 79 279 0.0 0.0 0.00 0.00 0.00 58 1008.5
20260905151029 79 282 0.0 0.0 0.00 0.00 0.00 59 1008.5
20260905151000 78 282 0.0 0.0 0.00 0.00 0.00 57 1008.5
20260905150901 78 297 0.0 0.0 0.00 0.00 0.00 58 1003.9
20260905150800 78 305 0.0 0.0 0.00 0.00 0.00 59 1003.9
20260905150727 78 299 0.0 0.0 0.00 0.00 0.00 60 1003.9
20260905150700 78 326 0.0 0.0 0.00 0.00 0.00 60 1003.4
20260905150559 78 294 0.0 0.0 0.00 0.00 0.00 60 1002.7
20260905150529 78 277 0.0 0.0 0.00 0.00 0.00 61 1002.8
20260905150520 78 281 0.0 0.0 0.00 0.00 0.00 61 1002.7
20260905150407 78 276 0.0 0.0 0.00 0.00 0.00 63 1002.7
20260905150224 77 294 0.0 0.0 0.00 0.00 0.00 63 1006.1
20260905150157 77 298 0.0 0.0 0.00 0.00 0.00 62 1006.1
20260905150057 77 311 0.0 0.0 0.00 0.00 0.00 63 1006.1
20260905150030 77 348 0.0 0.0 0.00 0.00 0.00 64 1003.7
20260905150010 77 348 0.0 0.0 0.00 0.00 0.00 63 1003.6
20260905150005 77 348 0.0 0.0 0.00 0.00 0.00 64 1003.6
20260905145811 77 348 0.0 0.0 0.00 0.00 0.00 60 1003.1
20260905145759 77 348 0.0 0.0 0.00 0.00 0.00 61 1003.6
20260905145553 77 0 0.0 0.0 0.00 0.00 0.00 62 1003.4
20260905145529 77 355 0.0 0.0 0.00 0.00 0.00 61 1002.9
20260905145506 77 351 0.0 0.0 0.00 0.00 0.00 60 1003.7
20260905145502 77 351 0.0 0.0 0.00 0.00 0.00 61 1002.8
20260905145251 77 227 0.0 0.0 0.00 0.00 0.00 62 1003.7
20260905145220 77 11 0.0 0.0 0.00 0.00 0.00 62 1003.7
20260905145150 77 0 0.0 0.0 0.00 0.00 0.00 62 1003.9